Time,TemperatureF,DewpointF,PressureIn,WindDirection,WindDirectionDegrees,WindSpeedMPH,WindSpeedGustMPH,Humidity,HourlyPrecipIn,Conditions,Clouds,dailyrainin,SoftwareType,DateUTC
2013-02-05 00:02:00,7.9,0.1,29.90,North,32767,-999.0,-999.0,70,0.00,,,0.00,Wunderground v.1.15,2013-02-05 06:02:00,
2013-02-05 00:03:00,7.9,0.1,29.90,North,32767,-999.0,-999.0,70,0.00,,,0.00,Wunderground v.1.15,2013-02-05 06:03:00,
2013-02-05 00:06:00,7.7,-0.1,29.90,North,32767,-999.0,-999.0,70,0.00,,,0.00,Wunderground v.1.15,2013-02-05 06:06:00,
2013-02-05 00:07:00,7.7,-0.1,29.90,North,32767,-999.0,-999.0,70,0.00,,,0.00,Wunderground v.1.15,2013-02-05 06:07:00,
2013-02-05 00:08:00,7.7,-0.1,29.90,North,32767,-999.0,-999.0,70,0.00,,,0.00,Wunderground v.1.15,2013-02-05 06:08:00,
2013-02-05 00:12:00,7.7,-0.1,29.89,North,32767,-999.0,-999.0,70,0.00,,,0.00,Wunderground v.1.15,2013-02-05 06:12:00,
2013-02-05 00:13:00,7.7,-0.1,29.89,North,32767,-999.0,-999.0,70,0.00,,,0.00,Wunderground v.1.15,2013-02-05 06:13:00,
2013-02-05 00:16:00,7.7,-0.1,29.89,North,32767,-999.0,-999.0,70,0.00,,,0.00,Wunderground v.1.15,2013-02-05 06:16:00,
2013-02-05 00:17:00,7.7,-0.1,29.89,North,32767,-999.0,-999.0,70,0.00,,,0.00,Wunderground v.1.15,2013-02-05 06:17:00,
2013-02-05 00:21:00,7.7,-0.1,29.89,North,32767,-999.0,-999.0,70,0.00,,,0.00,Wunderground v.1.15,2013-02-05 06:21:00,
2013-02-05 00:26:00,7.7,-0.1,29.88,North,32767,-999.0,-999.0,70,0.00,,,0.00,Wunderground v.1.15,2013-02-05 06:26:00,
2013-02-05 00:28:00,7.7,-0.1,29.88,North,32767,-999.0,-999.0,70,0.00,,,0.00,Wunderground v.1.15,2013-02-05 06:28:00,
2013-02-05 00:31:00,7.7,-0.1,29.88,North,32767,-999.0,-999.0,70,0.00,,,0.00,Wunderground v.1.15,2013-02-05 06:31:00,
2013-02-05 00:33:00,7.7,-0.1,29.88,North,32767,-999.0,-999.0,70,0.00,,,0.00,Wunderground v.1.15,2013-02-05 06:33:00,
2013-02-05 00:38:00,7.6,-0.1,29.88,North,32767,-999.0,-999.0,70,0.00,,,0.00,Wunderground v.1.15,2013-02-05 06:38:00,
2013-02-05 00:41:00,7.7,-0.1,29.87,North,32767,-999.0,-999.0,70,0.00,,,0.00,Wunderground v.1.15,2013-02-05 06:41:00,
2013-02-05 00:43:00,7.7,-0.1,29.87,North,32767,-999.0,-999.0,70,0.00,,,0.00,Wunderground v.1.15,2013-02-05 06:43:00,
2013-02-05 00:46:00,7.7,-0.4,29.87,North,32767,-999.0,-999.0,69,0.00,,,0.00,Wunderground v.1.15,2013-02-05 06:46:00,
2013-02-05 00:51:00,7.9,-0.2,29.87,North,32767,-999.0,-999.0,69,0.00,,,0.00,Wunderground v.1.15,2013-02-05 06:51:00,
2013-02-05 00:53:00,7.9,-0.2,29.87,North,32767,-999.0,-999.0,69,0.00,,,0.00,Wunderground v.1.15,2013-02-05 06:53:00,
2013-02-05 00:56:00,7.9,-0.2,29.87,North,32767,-999.0,-999.0,69,0.00,,,0.00,Wunderground v.1.15,2013-02-05 06:56:00,
2013-02-05 01:01:00,7.9,-0.5,29.87,North,32767,-999.0,-999.0,68,0.00,,,0.00,Wunderground v.1.15,2013-02-05 07:01:00,
2013-02-05 01:02:00,7.9,-0.5,29.87,North,32767,-999.0,-999.0,68,0.00,,,0.00,Wunderground v.1.15,2013-02-05 07:02:00,
2013-02-05 01:07:00,7.6,-0.8,29.87,North,32767,-999.0,-999.0,68,0.00,,,0.00,Wunderground v.1.15,2013-02-05 07:07:00,
2013-02-05 01:13:00,7.0,-1.0,29.87,North,32767,-999.0,-999.0,69,0.00,,,0.00,Wunderground v.1.15,2013-02-05 07:13:00,
2013-02-05 01:16:00,6.9,-1.1,29.87,North,32767,-999.0,-999.0,69,0.00,,,0.00,Wunderground v.1.15,2013-02-05 07:16:00,
2013-02-05 01:18:00,6.9,-0.8,29.87,North,32767,-999.0,-999.0,70,0.00,,,0.00,Wunderground v.1.15,2013-02-05 07:18:00,
2013-02-05 01:21:00,6.9,-0.8,29.87,North,32767,-999.0,-999.0,70,0.00,,,0.00,Wunderground v.1.15,2013-02-05 07:21:00,
2013-02-05 01:22:00,6.9,-0.8,29.87,North,32767,-999.0,-999.0,70,0.00,,,0.00,Wunderground v.1.15,2013-02-05 07:22:00,
2013-02-05 01:26:00,6.9,-0.8,29.86,North,32767,-999.0,-999.0,70,0.00,,,0.00,Wunderground v.1.15,2013-02-05 07:26:00,
2013-02-05 01:31:00,7.0,-0.7,29.86,North,32767,-999.0,-999.0,70,0.00,,,0.00,Wunderground v.1.15,2013-02-05 07:31:00,
2013-02-05 01:33:00,7.0,-0.7,29.86,North,32767,-999.0,-999.0,70,0.00,,,0.00,Wunderground v.1.15,2013-02-05 07:33:00,
2013-02-05 01:38:00,7.4,-0.6,29.85,North,32767,-999.0,-999.0,69,0.00,,,0.00,Wunderground v.1.15,2013-02-05 07:38:00,
2013-02-05 01:41:00,7.4,-0.6,29.85,North,32767,-999.0,-999.0,69,0.00,,,0.00,Wunderground v.1.15,2013-02-05 07:41:00,
2013-02-05 01:46:00,7.6,-0.5,29.85,North,32767,-999.0,-999.0,69,0.00,,,0.00,Wunderground v.1.15,2013-02-05 07:46:00,
2013-02-05 01:47:00,7.6,-0.5,29.85,North,32767,-999.0,-999.0,69,0.00,,,0.00,Wunderground v.1.15,2013-02-05 07:47:00,
2013-02-05 01:51:00,7.7,-0.7,29.85,North,32767,-999.0,-999.0,68,0.00,,,0.00,Wunderground v.1.15,2013-02-05 07:51:00,
2013-02-05 01:52:00,7.7,-0.7,29.85,North,32767,-999.0,-999.0,68,0.00,,,0.00,Wunderground v.1.15,2013-02-05 07:52:00,
2013-02-05 01:53:00,7.7,-0.7,29.85,North,32767,-999.0,-999.0,68,0.00,,,0.00,Wunderground v.1.15,2013-02-05 07:53:00,
2013-02-05 01:56:00,7.9,-0.5,29.85,North,32767,-999.0,-999.0,68,0.00,,,0.00,Wunderground v.1.15,2013-02-05 07:56:00,
2013-02-05 01:57:00,7.9,-0.5,29.85,North,32767,-999.0,-999.0,68,0.00,,,0.00,Wunderground v.1.15,2013-02-05 07:57:00,
2013-02-05 02:01:00,8.1,-0.6,29.85,North,32767,-999.0,-999.0,67,0.00,,,0.00,Wunderground v.1.15,2013-02-05 08:01:00,
2013-02-05 02:02:00,8.1,-0.6,29.85,North,32767,-999.0,-999.0,67,0.00,,,0.00,Wunderground v.1.15,2013-02-05 08:02:00,
2013-02-05 02:07:00,8.4,-1.0,29.85,North,32767,-999.0,-999.0,65,0.00,,,0.00,Wunderground v.1.15,2013-02-05 08:07:00,
2013-02-05 02:08:00,8.4,-1.0,29.85,North,32767,-999.0,-999.0,65,0.00,,,0.00,Wunderground v.1.15,2013-02-05 08:08:00,
2013-02-05 02:12:00,8.6,-1.1,29.84,North,32767,-999.0,-999.0,64,0.00,,,0.00,Wunderground v.1.15,2013-02-05 08:12:00,
2013-02-05 02:13:00,8.6,-1.1,29.84,North,32767,-999.0,-999.0,64,0.00,,,0.00,Wunderground v.1.15,2013-02-05 08:13:00,
2013-02-05 02:14:00,8.6,-1.1,29.84,North,32767,-999.0,-999.0,64,0.00,,,0.00,Wunderground v.1.15,2013-02-05 08:14:00,
2013-02-05 02:17:00,8.6,-1.4,29.84,North,32767,-999.0,-999.0,63,0.00,,,0.00,Wunderground v.1.15,2013-02-05 08:17:00,
2013-02-05 02:18:00,8.4,-1.6,29.84,North,32767,-999.0,-999.0,63,0.00,,,0.00,Wunderground v.1.15,2013-02-05 08:18:00,
2013-02-05 02:19:00,8.4,-1.6,29.84,North,32767,-999.0,-999.0,63,0.00,,,0.00,Wunderground v.1.15,2013-02-05 08:19:00,
2013-02-05 02:22:00,8.4,-1.6,29.84,North,32767,-999.0,-999.0,63,0.00,,,0.00,Wunderground v.1.15,2013-02-05 08:22:00,
2013-02-05 02:23:00,8.3,-1.7,29.84,North,32767,-999.0,-999.0,63,0.00,,,0.00,Wunderground v.1.15,2013-02-05 08:23:00,
2013-02-05 02:24:00,8.3,-1.7,29.84,North,32767,-999.0,-999.0,63,0.00,,,0.00,Wunderground v.1.15,2013-02-05 08:24:00,
2013-02-05 02:27:00,8.1,-1.9,29.84,North,32767,-999.0,-999.0,63,0.00,,,0.00,Wunderground v.1.15,2013-02-05 08:27:00,
2013-02-05 02:28:00,7.9,-1.8,29.84,North,32767,-999.0,-999.0,64,0.00,,,0.00,Wunderground v.1.15,2013-02-05 08:28:00,
2013-02-05 02:29:00,7.9,-1.8,29.84,North,32767,-999.0,-999.0,64,0.00,,,0.00,Wunderground v.1.15,2013-02-05 08:29:00,
2013-02-05 02:32:00,7.9,-1.8,29.84,North,32767,-999.0,-999.0,64,0.00,,,0.00,Wunderground v.1.15,2013-02-05 08:32:00,
2013-02-05 02:33:00,7.9,-1.8,29.84,North,32767,-999.0,-999.0,64,0.00,,,0.00,Wunderground v.1.15,2013-02-05 08:33:00,
2013-02-05 02:37:00,7.7,-2.0,29.84,North,32767,-999.0,-999.0,64,0.00,,,0.00,Wunderground v.1.15,2013-02-05 08:37:00,
2013-02-05 02:38:00,7.7,-1.6,29.84,North,32767,-999.0,-999.0,65,0.00,,,0.00,Wunderground v.1.15,2013-02-05 08:38:00,
2013-02-05 02:42:00,7.6,-1.7,29.83,North,32767,-999.0,-999.0,65,0.00,,,0.00,Wunderground v.1.15,2013-02-05 08:42:00,
2013-02-05 02:43:00,7.6,-1.7,29.83,North,32767,-999.0,-999.0,65,0.00,,,0.00,Wunderground v.1.15,2013-02-05 08:43:00,
2013-02-05 02:45:00,7.6,-1.7,29.83,North,32767,-999.0,-999.0,65,0.00,,,0.00,Wunderground v.1.15,2013-02-05 08:45:00,
2013-02-05 02:47:00,7.6,-1.7,29.83,North,32767,-999.0,-999.0,65,0.00,,,0.00,Wunderground v.1.15,2013-02-05 08:47:00,
2013-02-05 02:48:00,7.6,-1.7,29.83,North,32767,-999.0,-999.0,65,0.00,,,0.00,Wunderground v.1.15,2013-02-05 08:48:00,
2013-02-05 02:52:00,7.6,-1.7,29.83,North,32767,-999.0,-999.0,65,0.00,,,0.00,Wunderground v.1.15,2013-02-05 08:52:00,
2013-02-05 02:53:00,7.6,-1.7,29.82,North,32767,-999.0,-999.0,65,0.00,,,0.00,Wunderground v.1.15,2013-02-05 08:53:00,
2013-02-05 02:54:00,7.6,-1.7,29.82,North,32767,-999.0,-999.0,65,0.00,,,0.00,Wunderground v.1.15,2013-02-05 08:54:00,
2013-02-05 02:58:00,7.4,-1.9,29.82,North,32767,-999.0,-999.0,65,0.00,,,0.00,Wunderground v.1.15,2013-02-05 08:58:00,
2013-02-05 02:59:00,7.4,-1.9,29.82,North,32767,-999.0,-999.0,65,0.00,,,0.00,Wunderground v.1.15,2013-02-05 08:59:00,
2013-02-05 03:03:00,7.4,-1.9,29.82,North,32767,-999.0,-999.0,65,0.00,,,0.00,Wunderground v.1.15,2013-02-05 09:03:00,
2013-02-05 03:04:00,7.4,-1.9,29.82,North,32767,-999.0,-999.0,65,0.00,,,0.00,Wunderground v.1.15,2013-02-05 09:04:00,
2013-02-05 03:07:00,7.4,-1.6,29.82,North,32767,-999.0,-999.0,66,0.00,,,0.00,Wunderground v.1.15,2013-02-05 09:07:00,
2013-02-05 03:09:00,7.4,-1.6,29.82,North,32767,-999.0,-999.0,66,0.00,,,0.00,Wunderground v.1.15,2013-02-05 09:09:00,
2013-02-05 03:11:00,7.2,-1.8,29.82,North,32767,-999.0,-999.0,66,0.00,,,0.00,Wunderground v.1.15,2013-02-05 09:11:00,
2013-02-05 03:12:00,7.2,-1.8,29.82,West,269,0.0,0.0,66,0.00,,,0.00,Wunderground v.1.15,2013-02-05 09:12:00,
2013-02-05 03:13:00,7.2,-1.8,29.82,West,269,0.0,0.0,66,0.00,,,0.00,Wunderground v.1.15,2013-02-05 09:13:00,
2013-02-05 03:16:00,6.9,-1.8,29.82,West,269,0.0,0.0,67,0.00,,,0.00,Wunderground v.1.15,2013-02-05 09:16:00,
2013-02-05 03:18:00,6.7,-1.9,29.82,West,269,0.0,0.0,67,0.00,,,0.00,Wunderground v.1.15,2013-02-05 09:18:00,
2013-02-05 03:22:00,6.3,-2.0,29.82,West,269,0.0,0.0,68,0.00,,,0.00,Wunderground v.1.15,2013-02-05 09:22:00,
2013-02-05 03:23:00,6.1,-2.2,29.82,West,269,0.0,0.0,68,0.00,,,0.00,Wunderground v.1.15,2013-02-05 09:23:00,
2013-02-05 03:24:00,6.0,-2.3,29.82,West,269,0.0,0.0,68,0.00,,,0.00,Wunderground v.1.15,2013-02-05 09:24:00,
2013-02-05 03:28:00,5.6,-2.4,29.82,West,269,0.0,0.0,69,0.00,,,0.00,Wunderground v.1.15,2013-02-05 09:28:00,
2013-02-05 03:31:00,5.4,-2.3,29.82,West,269,0.0,0.0,70,0.00,,,0.00,Wunderground v.1.15,2013-02-05 09:31:00,
2013-02-05 03:32:00,5.4,-2.0,29.82,West,269,0.0,0.0,71,0.00,,,0.00,Wunderground v.1.15,2013-02-05 09:32:00,
2013-02-05 03:33:00,5.4,-2.0,29.82,West,269,0.0,0.0,71,0.00,,,0.00,Wunderground v.1.15,2013-02-05 09:33:00,
2013-02-05 03:36:00,5.4,-1.7,29.82,North,32767,-999.0,0.0,72,0.00,,,0.00,Wunderground v.1.15,2013-02-05 09:36:00,
2013-02-05 03:37:00,5.4,-1.7,29.82,North,32767,-999.0,0.0,72,0.00,,,0.00,Wunderground v.1.15,2013-02-05 09:37:00,
2013-02-05 03:39:00,5.4,-1.7,29.82,North,32767,-999.0,0.0,72,0.00,,,0.00,Wunderground v.1.15,2013-02-05 09:39:00,
2013-02-05 03:40:00,5.4,-1.7,29.82,North,32767,-999.0,0.0,72,0.00,,,0.00,Wunderground v.1.15,2013-02-05 09:40:00,
2013-02-05 03:42:00,5.4,-1.4,29.82,North,32767,-999.0,-999.0,73,0.00,,,0.00,Wunderground v.1.15,2013-02-05 09:42:00,
2013-02-05 03:43:00,5.4,-1.4,29.82,North,32767,-999.0,-999.0,73,0.00,,,0.00,Wunderground v.1.15,2013-02-05 09:43:00,
2013-02-05 03:47:00,5.4,-1.1,29.82,North,32767,-999.0,-999.0,74,0.00,,,0.00,Wunderground v.1.15,2013-02-05 09:47:00,
2013-02-05 03:48:00,5.4,-1.1,29.82,North,32767,-999.0,-999.0,74,0.00,,,0.00,Wunderground v.1.15,2013-02-05 09:48:00,
2013-02-05 03:52:00,5.6,-0.9,29.82,North,32767,-999.0,-999.0,74,0.00,,,0.00,Wunderground v.1.15,2013-02-05 09:52:00,
2013-02-05 03:56:00,5.6,-0.9,29.82,North,32767,-999.0,-999.0,74,0.00,,,0.00,Wunderground v.1.15,2013-02-05 09:56:00,
2013-02-05 03:57:00,5.6,-0.9,29.82,North,32767,-999.0,-999.0,74,0.00,,,0.00,Wunderground v.1.15,2013-02-05 09:57:00,
2013-02-05 03:58:00,5.6,-0.9,29.82,North,32767,-999.0,-999.0,74,0.00,,,0.00,Wunderground v.1.15,2013-02-05 09:58:00,
2013-02-05 04:01:00,5.6,-0.9,29.82,North,32767,-999.0,-999.0,74,0.00,,,0.00,Wunderground v.1.15,2013-02-05 10:01:00,
2013-02-05 04:03:00,5.4,-1.1,29.82,North,32767,-999.0,-999.0,74,0.00,,,0.00,Wunderground v.1.15,2013-02-05 10:03:00,
2013-02-05 04:04:00,5.4,-1.1,29.82,North,32767,-999.0,-999.0,74,0.00,,,0.00,Wunderground v.1.15,2013-02-05 10:04:00,
2013-02-05 04:07:00,5.2,-1.0,29.82,North,32767,-999.0,-999.0,75,0.00,,,0.00,Wunderground v.1.15,2013-02-05 10:07:00,
2013-02-05 04:08:00,5.2,-1.0,29.82,North,32767,-999.0,-999.0,75,0.00,,,0.00,Wunderground v.1.15,2013-02-05 10:08:00,
2013-02-05 04:09:00,5.0,-1.2,29.83,North,32767,-999.0,-999.0,75,0.00,,,0.00,Wunderground v.1.15,2013-02-05 10:09:00,
2013-02-05 04:12:00,5.0,-1.2,29.83,North,32767,-999.0,-999.0,75,0.00,,,0.00,Wunderground v.1.15,2013-02-05 10:12:00,
2013-02-05 04:13:00,5.0,-1.2,29.83,North,32767,-999.0,-999.0,75,0.00,,,0.00,Wunderground v.1.15,2013-02-05 10:13:00,
2013-02-05 04:16:00,5.0,-1.2,29.83,North,32767,-999.0,-999.0,75,0.00,,,0.00,Wunderground v.1.15,2013-02-05 10:16:00,
2013-02-05 04:19:00,5.0,-1.2,29.83,North,32767,-999.0,-999.0,75,0.00,,,0.00,Wunderground v.1.15,2013-02-05 10:19:00,
2013-02-05 04:21:00,5.4,-0.5,29.83,North,32767,-999.0,-999.0,76,0.00,,,0.00,Wunderground v.1.15,2013-02-05 10:21:00,
2013-02-05 04:22:00,5.4,-0.5,29.83,North,32767,-999.0,-999.0,76,0.00,,,0.00,Wunderground v.1.15,2013-02-05 10:22:00,
2013-02-05 04:26:00,5.6,-0.6,29.83,North,32767,-999.0,-999.0,75,0.00,,,0.00,Wunderground v.1.15,2013-02-05 10:26:00,
2013-02-05 04:27:00,5.8,-0.4,29.83,North,32767,-999.0,-999.0,75,0.00,,,0.00,Wunderground v.1.15,2013-02-05 10:27:00,
2013-02-05 04:32:00,6.0,-0.2,29.83,North,32767,-999.0,-999.0,75,0.00,,,0.00,Wunderground v.1.15,2013-02-05 10:32:00,
2013-02-05 04:33:00,6.0,-0.2,29.83,North,32767,-999.0,-999.0,75,0.00,,,0.00,Wunderground v.1.15,2013-02-05 10:33:00,
2013-02-05 04:37:00,6.1,-0.1,29.83,North,32767,-999.0,-999.0,75,0.00,,,0.00,Wunderground v.1.15,2013-02-05 10:37:00,
2013-02-05 04:38:00,6.3,0.1,29.83,North,32767,-999.0,-999.0,75,0.00,,,0.00,Wunderground v.1.15,2013-02-05 10:38:00,
2013-02-05 04:42:00,6.7,0.2,29.82,North,32767,-999.0,-999.0,74,0.00,,,0.00,Wunderground v.1.15,2013-02-05 10:42:00,
2013-02-05 04:43:00,6.7,0.2,29.82,North,32767,-999.0,-999.0,74,0.00,,,0.00,Wunderground v.1.15,2013-02-05 10:43:00,
2013-02-05 04:47:00,7.0,0.2,29.82,North,32767,-999.0,-999.0,73,0.00,,,0.00,Wunderground v.1.15,2013-02-05 10:47:00,
2013-02-05 04:48:00,7.2,0.4,29.82,North,32767,-999.0,-999.0,73,0.00,,,0.00,Wunderground v.1.15,2013-02-05 10:48:00,
2013-02-05 04:49:00,7.2,0.4,29.82,North,32767,-999.0,-999.0,73,0.00,,,0.00,Wunderground v.1.15,2013-02-05 10:49:00,
2013-02-05 04:53:00,7.6,0.5,29.82,North,32767,-999.0,-999.0,72,0.00,,,0.00,Wunderground v.1.15,2013-02-05 10:53:00,
2013-02-05 04:54:00,7.6,0.5,29.82,North,32767,-999.0,-999.0,72,0.00,,,0.00,Wunderground v.1.15,2013-02-05 10:54:00,
2013-02-05 04:57:00,7.7,0.5,29.82,North,32767,-999.0,-999.0,72,0.00,,,0.00,Wunderground v.1.15,2013-02-05 10:57:00,
2013-02-05 04:58:00,7.6,0.2,29.82,North,32767,-999.0,-999.0,71,0.00,,,0.00,Wunderground v.1.15,2013-02-05 10:58:00,
2013-02-05 05:02:00,7.2,0.1,29.82,North,32767,-999.0,-999.0,72,0.00,,,0.00,Wunderground v.1.15,2013-02-05 11:02:00,
2013-02-05 05:03:00,7.0,-0.1,29.82,North,32767,-999.0,-999.0,72,0.00,,,0.00,Wunderground v.1.15,2013-02-05 11:03:00,
2013-02-05 05:07:00,6.7,-0.1,29.82,North,32767,-999.0,-999.0,73,0.00,,,0.00,Wunderground v.1.15,2013-02-05 11:07:00,
2013-02-05 05:08:00,6.7,-0.1,29.82,North,32767,-999.0,-999.0,73,0.00,,,0.00,Wunderground v.1.15,2013-02-05 11:08:00,
2013-02-05 05:09:00,6.7,-0.1,29.82,North,32767,-999.0,-999.0,73,0.00,,,0.00,Wunderground v.1.15,2013-02-05 11:09:00,
2013-02-05 05:10:00,6.9,0.1,29.82,North,32767,-999.0,-999.0,73,0.00,,,0.00,Wunderground v.1.15,2013-02-05 11:10:00,
2013-02-05 05:12:00,6.9,0.1,29.82,North,32767,-999.0,-999.0,73,0.00,,,0.00,Wunderground v.1.15,2013-02-05 11:12:00,
2013-02-05 05:13:00,6.9,0.1,29.82,North,32767,-999.0,-999.0,73,0.00,,,0.00,Wunderground v.1.15,2013-02-05 11:13:00,
2013-02-05 05:14:00,7.0,0.2,29.82,North,32767,-999.0,-999.0,73,0.00,,,0.00,Wunderground v.1.15,2013-02-05 11:14:00,
2013-02-05 05:17:00,7.2,0.4,29.82,North,32767,-999.0,-999.0,73,0.00,,,0.00,Wunderground v.1.15,2013-02-05 11:17:00,
2013-02-05 05:18:00,7.4,0.6,29.82,North,32767,-999.0,-999.0,73,0.00,,,0.00,Wunderground v.1.15,2013-02-05 11:18:00,
2013-02-05 05:22:00,7.6,0.7,29.82,North,32767,-999.0,-999.0,73,0.00,,,0.00,Wunderground v.1.15,2013-02-05 11:22:00,
2013-02-05 05:23:00,7.7,0.5,29.83,North,32767,-999.0,-999.0,72,0.00,,,0.00,Wunderground v.1.15,2013-02-05 11:23:00,
2013-02-05 05:27:00,7.9,0.7,29.83,North,32767,-999.0,-999.0,72,0.00,,,0.00,Wunderground v.1.15,2013-02-05 11:27:00,
2013-02-05 05:28:00,7.9,0.7,29.83,North,32767,-999.0,-999.0,72,0.00,,,0.00,Wunderground v.1.15,2013-02-05 11:28:00,
2013-02-05 05:32:00,8.4,0.9,29.83,North,32767,-999.0,-999.0,71,0.00,,,0.00,Wunderground v.1.15,2013-02-05 11:32:00,
2013-02-05 05:33:00,8.4,0.9,29.83,North,32767,-999.0,-999.0,71,0.00,,,0.00,Wunderground v.1.15,2013-02-05 11:33:00,
2013-02-05 05:37:00,9.0,1.2,29.83,North,32767,-999.0,-999.0,70,0.00,,,0.00,Wunderground v.1.15,2013-02-05 11:37:00,
2013-02-05 05:38:00,9.2,1.4,29.83,North,32767,-999.0,-999.0,70,0.00,,,0.00,Wunderground v.1.15,2013-02-05 11:38:00,
2013-02-05 05:42:00,9.5,1.4,29.82,North,32767,-999.0,-999.0,69,0.00,,,0.00,Wunderground v.1.15,2013-02-05 11:42:00,
2013-02-05 05:43:00,9.7,1.2,29.82,North,32767,-999.0,-999.0,68,0.00,,,0.00,Wunderground v.1.15,2013-02-05 11:43:00,
2013-02-05 05:44:00,9.7,1.2,29.82,North,32767,-999.0,-999.0,68,0.00,,,0.00,Wunderground v.1.15,2013-02-05 11:44:00,
2013-02-05 05:49:00,10.0,1.2,29.82,North,32767,-999.0,-999.0,67,0.00,,,0.00,Wunderground v.1.15,2013-02-05 11:49:00,
2013-02-05 05:52:00,10.2,1.1,29.82,North,32767,-999.0,-999.0,66,0.00,,,0.00,Wunderground v.1.15,2013-02-05 11:52:00,
2013-02-05 05:54:00,10.2,0.8,29.81,North,32767,-999.0,-999.0,65,0.00,,,0.00,Wunderground v.1.15,2013-02-05 11:54:00,
2013-02-05 05:57:00,10.4,1.0,29.81,North,32767,-999.0,-999.0,65,0.00,,,0.00,Wunderground v.1.15,2013-02-05 11:57:00,
2013-02-05 05:58:00,10.5,1.0,29.81,North,32767,-999.0,-999.0,65,0.00,,,0.00,Wunderground v.1.15,2013-02-05 11:58:00,
2013-02-05 05:59:00,10.5,1.0,29.81,North,32767,-999.0,-999.0,65,0.00,,,0.00,Wunderground v.1.15,2013-02-05 11:59:00,
2013-02-05 06:01:00,10.5,1.0,29.81,North,32767,-999.0,-999.0,65,0.00,,,0.00,Wunderground v.1.15,2013-02-05 12:01:00,
2013-02-05 06:02:00,10.5,1.0,29.81,North,32767,-999.0,-999.0,65,0.00,,,0.00,Wunderground v.1.15,2013-02-05 12:02:00,
2013-02-05 06:03:00,10.5,1.0,29.81,North,32767,-999.0,-999.0,65,0.00,,,0.00,Wunderground v.1.15,2013-02-05 12:03:00,
2013-02-05 06:05:00,10.7,1.2,29.81,North,32767,-999.0,-999.0,65,0.00,,,0.00,Wunderground v.1.15,2013-02-05 12:05:00,
2013-02-05 06:07:00,10.7,1.2,29.81,North,32767,-999.0,-999.0,65,0.00,,,0.00,Wunderground v.1.15,2013-02-05 12:07:00,
2013-02-05 06:08:00,10.9,1.4,29.80,North,32767,-999.0,-999.0,65,0.00,,,0.00,Wunderground v.1.15,2013-02-05 12:08:00,
2013-02-05 06:11:00,10.9,1.8,29.80,North,32767,-999.0,-999.0,66,0.00,,,0.00,Wunderground v.1.15,2013-02-05 12:11:00,
2013-02-05 06:14:00,11.1,2.9,29.80,North,32767,-999.0,-999.0,69,0.00,,,0.00,Wunderground v.1.15,2013-02-05 12:14:00,
2013-02-05 06:17:00,11.2,3.6,29.80,North,32767,-999.0,-999.0,71,0.00,,,0.00,Wunderground v.1.15,2013-02-05 12:17:00,
2013-02-05 06:18:00,11.2,3.6,29.80,North,32767,-999.0,-999.0,71,0.00,,,0.00,Wunderground v.1.15,2013-02-05 12:18:00,
2013-02-05 06:19:00,11.2,3.6,29.80,North,32767,-999.0,-999.0,71,0.00,,,0.00,Wunderground v.1.15,2013-02-05 12:19:00,
2013-02-05 06:22:00,11.4,4.7,29.80,North,32767,-999.0,-999.0,74,0.00,,,0.00,Wunderground v.1.15,2013-02-05 12:22:00,
2013-02-05 06:23:00,11.4,5.0,29.80,North,32767,-999.0,-999.0,75,0.00,,,0.00,Wunderground v.1.15,2013-02-05 12:23:00,
2013-02-05 06:24:00,11.4,5.0,29.79,North,32767,-999.0,-999.0,75,0.00,,,0.00,Wunderground v.1.15,2013-02-05 12:24:00,
2013-02-05 06:26:00,11.6,5.5,29.79,North,32767,-999.0,-999.0,76,0.00,,,0.00,Wunderground v.1.15,2013-02-05 12:26:00,
2013-02-05 06:28:00,11.6,5.8,29.79,North,32767,-999.0,-999.0,77,0.00,,,0.00,Wunderground v.1.15,2013-02-05 12:28:00,
2013-02-05 06:31:00,11.7,6.4,29.79,North,32767,-999.0,-999.0,79,0.00,,,0.00,Wunderground v.1.15,2013-02-05 12:31:00,
2013-02-05 06:33:00,11.9,6.9,29.79,North,32767,-999.0,-999.0,80,0.00,,,0.00,Wunderground v.1.15,2013-02-05 12:33:00,
2013-02-05 06:34:00,11.9,6.9,29.79,North,32767,-999.0,-999.0,80,0.00,,,0.00,Wunderground v.1.15,2013-02-05 12:34:00,
2013-02-05 06:37:00,12.1,7.4,29.79,North,32767,-999.0,-999.0,81,0.00,,,0.00,Wunderground v.1.15,2013-02-05 12:37:00,
2013-02-05 06:38:00,12.1,7.4,29.79,North,32767,-999.0,-999.0,81,0.00,,,0.00,Wunderground v.1.15,2013-02-05 12:38:00,
2013-02-05 06:39:00,12.1,7.4,29.79,North,32767,-999.0,-999.0,81,0.00,,,0.00,Wunderground v.1.15,2013-02-05 12:39:00,
2013-02-05 06:42:00,12.1,7.7,29.79,North,32767,-999.0,-999.0,82,0.00,,,0.00,Wunderground v.1.15,2013-02-05 12:42:00,
2013-02-05 06:43:00,12.1,7.7,29.79,North,32767,-999.0,-999.0,82,0.00,,,0.00,Wunderground v.1.15,2013-02-05 12:43:00,
2013-02-05 06:44:00,12.1,7.7,29.79,North,32767,-999.0,0.0,82,0.00,,,0.00,Wunderground v.1.15,2013-02-05 12:44:00,
2013-02-05 06:48:00,12.4,8.2,29.79,North,32767,-999.0,0.0,83,0.00,,,0.00,Wunderground v.1.15,2013-02-05 12:48:00,
2013-02-05 06:49:00,12.4,8.2,29.79,North,32767,-999.0,0.0,83,0.00,,,0.00,Wunderground v.1.15,2013-02-05 12:49:00,
2013-02-05 06:53:00,12.4,8.2,29.77,North,32767,-999.0,-999.0,83,0.00,,,0.00,Wunderground v.1.15,2013-02-05 12:53:00,
2013-02-05 06:57:00,12.6,8.7,29.77,North,32767,-999.0,-999.0,84,0.00,,,0.00,Wunderground v.1.15,2013-02-05 12:57:00,
2013-02-05 06:58:00,12.8,8.9,29.77,North,32767,-999.0,-999.0,84,0.00,,,0.00,Wunderground v.1.15,2013-02-05 12:58:00,
2013-02-05 07:02:00,12.8,8.9,29.77,North,32767,-999.0,-999.0,84,0.00,,,0.00,Wunderground v.1.15,2013-02-05 13:02:00,
2013-02-05 07:03:00,12.9,9.0,29.77,North,32767,-999.0,-999.0,84,0.00,,,0.00,Wunderground v.1.15,2013-02-05 13:03:00,
2013-02-05 07:04:00,12.9,9.0,29.77,North,32767,-999.0,-999.0,84,0.00,,,0.00,Wunderground v.1.15,2013-02-05 13:04:00,
2013-02-05 07:07:00,12.9,9.0,29.77,North,32767,-999.0,-999.0,84,0.00,,,0.00,Wunderground v.1.15,2013-02-05 13:07:00,
2013-02-05 07:08:00,12.9,9.0,29.77,North,32767,-999.0,-999.0,84,0.00,,,0.00,Wunderground v.1.15,2013-02-05 13:08:00,
2013-02-05 07:11:00,12.9,9.0,29.77,North,32767,-999.0,-999.0,84,0.00,,,0.00,Wunderground v.1.15,2013-02-05 13:11:00,
2013-02-05 07:12:00,12.9,9.0,29.77,North,32767,-999.0,-999.0,84,0.00,,,0.00,Wunderground v.1.15,2013-02-05 13:12:00,
2013-02-05 07:13:00,12.9,9.0,29.77,North,32767,-999.0,-999.0,84,0.00,,,0.00,Wunderground v.1.15,2013-02-05 13:13:00,
2013-02-05 07:14:00,12.8,8.9,29.77,North,32767,-999.0,-999.0,84,0.00,,,0.00,Wunderground v.1.15,2013-02-05 13:14:00,
2013-02-05 07:17:00,12.9,9.0,29.77,North,32767,-999.0,-999.0,84,0.00,,,0.00,Wunderground v.1.15,2013-02-05 13:17:00,
2013-02-05 07:19:00,12.8,8.9,29.77,North,32767,-999.0,-999.0,84,0.00,,,0.00,Wunderground v.1.15,2013-02-05 13:19:00,
2013-02-05 07:22:00,12.6,8.7,29.77,North,32767,-999.0,-999.0,84,0.00,,,0.00,Wunderground v.1.15,2013-02-05 13:22:00,
2013-02-05 07:23:00,12.6,8.7,29.77,North,32767,-999.0,-999.0,84,0.00,,,0.00,Wunderground v.1.15,2013-02-05 13:23:00,
2013-02-05 07:24:00,12.6,8.7,29.79,North,32767,-999.0,-999.0,84,0.00,,,0.00,Wunderground v.1.15,2013-02-05 13:24:00,
2013-02-05 07:28:00,12.6,8.7,29.79,North,32767,-999.0,-999.0,84,0.00,,,0.00,Wunderground v.1.15,2013-02-05 13:28:00,
2013-02-05 07:29:00,12.6,8.7,29.79,North,32767,-999.0,-999.0,84,0.00,,,0.00,Wunderground v.1.15,2013-02-05 13:29:00,
2013-02-05 07:31:00,12.6,8.7,29.79,North,32767,-999.0,-999.0,84,0.00,,,0.00,Wunderground v.1.15,2013-02-05 13:31:00,
2013-02-05 07:33:00,12.6,8.7,29.79,North,32767,-999.0,-999.0,84,0.00,,,0.00,Wunderground v.1.15,2013-02-05 13:33:00,
2013-02-05 07:34:00,12.6,8.7,29.79,North,32767,-999.0,-999.0,84,0.00,,,0.00,Wunderground v.1.15,2013-02-05 13:34:00,
2013-02-05 07:37:00,12.6,8.7,29.79,North,32767,-999.0,-999.0,84,0.00,,,0.00,Wunderground v.1.15,2013-02-05 13:37:00,
2013-02-05 07:38:00,12.8,9.1,29.79,North,32767,-999.0,-999.0,85,0.00,,,0.00,Wunderground v.1.15,2013-02-05 13:38:00,
2013-02-05 07:41:00,12.8,9.1,29.79,North,32767,-999.0,-999.0,85,0.00,,,0.00,Wunderground v.1.15,2013-02-05 13:41:00,
2013-02-05 07:42:00,12.8,9.1,29.79,North,32767,-999.0,-999.0,85,0.00,,,0.00,Wunderground v.1.15,2013-02-05 13:42:00,
2013-02-05 07:44:00,12.9,9.2,29.79,North,32767,-999.0,-999.0,85,0.00,,,0.00,Wunderground v.1.15,2013-02-05 13:44:00,
2013-02-05 07:47:00,13.1,9.4,29.79,North,32767,-999.0,-999.0,85,0.00,,,0.00,Wunderground v.1.15,2013-02-05 13:47:00,
2013-02-05 07:48:00,13.3,9.6,29.79,North,32767,-999.0,-999.0,85,0.00,,,0.00,Wunderground v.1.15,2013-02-05 13:48:00,
2013-02-05 07:49:00,13.3,9.6,29.79,North,32767,-999.0,-999.0,85,0.00,,,0.00,Wunderground v.1.15,2013-02-05 13:49:00,
2013-02-05 07:51:00,13.5,9.8,29.79,North,32767,-999.0,-999.0,85,0.00,,,0.00,Wunderground v.1.15,2013-02-05 13:51:00,
2013-02-05 07:52:00,13.5,9.8,29.79,North,32767,-999.0,-999.0,85,0.00,,,0.00,Wunderground v.1.15,2013-02-05 13:52:00,
2013-02-05 07:53:00,13.5,9.8,29.77,North,32767,-999.0,-999.0,85,0.00,,,0.00,Wunderground v.1.15,2013-02-05 13:53:00,
2013-02-05 07:56:00,13.8,10.1,29.77,North,32767,-999.0,-999.0,85,0.00,,,0.00,Wunderground v.1.15,2013-02-05 13:56:00,
2013-02-05 07:57:00,13.8,10.1,29.77,North,32767,-999.0,-999.0,85,0.00,,,0.00,Wunderground v.1.15,2013-02-05 13:57:00,
2013-02-05 07:58:00,13.8,10.1,29.77,North,32767,-999.0,-999.0,85,0.00,,,0.00,Wunderground v.1.15,2013-02-05 13:58:00,
2013-02-05 07:59:00,14.0,10.6,29.77,North,32767,-999.0,-999.0,86,0.00,,,0.00,Wunderground v.1.15,2013-02-05 13:59:00,
2013-02-05 08:02:00,14.1,10.7,29.77,North,32767,-999.0,-999.0,86,0.00,,,0.00,Wunderground v.1.15,2013-02-05 14:02:00,
2013-02-05 08:03:00,14.3,10.9,29.77,North,32767,-999.0,-999.0,86,0.00,,,0.00,Wunderground v.1.15,2013-02-05 14:03:00,
2013-02-05 08:07:00,14.4,11.0,29.77,North,32767,-999.0,-999.0,86,0.00,,,0.00,Wunderground v.1.15,2013-02-05 14:07:00,
2013-02-05 08:08:00,14.4,11.0,29.77,North,32767,-999.0,-999.0,86,0.00,,,0.00,Wunderground v.1.15,2013-02-05 14:08:00,
2013-02-05 08:12:00,14.6,10.9,29.77,North,32767,-999.0,-999.0,85,0.00,,,0.00,Wunderground v.1.15,2013-02-05 14:12:00,
2013-02-05 08:13:00,14.6,10.9,29.77,North,32767,-999.0,-999.0,85,0.00,,,0.00,Wunderground v.1.15,2013-02-05 14:13:00,
2013-02-05 08:15:00,14.6,10.9,29.77,North,32767,-999.0,-999.0,85,0.00,,,0.00,Wunderground v.1.15,2013-02-05 14:15:00,
2013-02-05 08:17:00,14.6,10.9,29.77,North,32767,-999.0,-999.0,85,0.00,,,0.00,Wunderground v.1.15,2013-02-05 14:17:00,
2013-02-05 08:18:00,14.6,10.9,29.77,North,32767,-999.0,-999.0,85,0.00,,,0.00,Wunderground v.1.15,2013-02-05 14:18:00,
2013-02-05 08:22:00,14.6,10.9,29.77,North,32767,-999.0,-999.0,85,0.00,,,0.00,Wunderground v.1.15,2013-02-05 14:22:00,
2013-02-05 08:23:00,14.6,10.9,29.77,North,32767,-999.0,-999.0,85,0.00,,,0.00,Wunderground v.1.15,2013-02-05 14:23:00,
2013-02-05 08:24:00,14.8,11.1,29.75,North,32767,-999.0,-999.0,85,0.00,,,0.00,Wunderground v.1.15,2013-02-05 14:24:00,
2013-02-05 08:27:00,14.8,11.1,29.75,North,32767,-999.0,-999.0,85,0.00,,,0.00,Wunderground v.1.15,2013-02-05 14:27:00,
2013-02-05 08:28:00,14.8,11.1,29.75,North,32767,-999.0,-999.0,85,0.00,,,0.00,Wunderground v.1.15,2013-02-05 14:28:00,
2013-02-05 08:30:00,14.9,11.2,29.75,North,32767,-999.0,-999.0,85,0.00,,,0.00,Wunderground v.1.15,2013-02-05 14:30:00,
2013-02-05 08:33:00,15.1,11.7,29.75,North,32767,-999.0,-999.0,86,0.00,,,0.00,Wunderground v.1.15,2013-02-05 14:33:00,
2013-02-05 08:34:00,15.1,11.7,29.75,North,32767,-999.0,-999.0,86,0.00,,,0.00,Wunderground v.1.15,2013-02-05 14:34:00,
2013-02-05 08:37:00,15.2,11.8,29.75,North,32767,-999.0,-999.0,86,0.00,,,0.00,Wunderground v.1.15,2013-02-05 14:37:00,
2013-02-05 08:38:00,15.4,12.0,29.75,North,32767,-999.0,-999.0,86,0.00,,,0.00,Wunderground v.1.15,2013-02-05 14:38:00,
2013-02-05 08:42:00,15.6,12.2,29.74,North,32767,-999.0,-999.0,86,0.00,,,0.00,Wunderground v.1.15,2013-02-05 14:42:00,
2013-02-05 08:43:00,15.6,12.2,29.74,North,32767,-999.0,-999.0,86,0.00,,,0.00,Wunderground v.1.15,2013-02-05 14:43:00,
2013-02-05 08:44:00,15.7,12.3,29.74,North,32767,-999.0,-999.0,86,0.00,,,0.00,Wunderground v.1.15,2013-02-05 14:44:00,
2013-02-05 08:48:00,15.9,12.5,29.74,North,32767,-999.0,-999.0,86,0.00,,,0.00,Wunderground v.1.15,2013-02-05 14:48:00,
2013-02-05 08:49:00,16.1,12.7,29.74,North,32767,-999.0,-999.0,86,0.00,,,0.00,Wunderground v.1.15,2013-02-05 14:49:00,
2013-02-05 08:50:00,16.1,12.7,29.74,North,32767,-999.0,-999.0,86,0.00,,,0.00,Wunderground v.1.15,2013-02-05 14:50:00,
2013-02-05 08:54:00,16.2,12.7,29.74,North,32767,-999.0,-999.0,86,0.00,,,0.00,Wunderground v.1.15,2013-02-05 14:54:00,
2013-02-05 08:56:00,16.5,13.0,29.74,North,32767,-999.0,-999.0,86,0.00,,,0.00,Wunderground v.1.15,2013-02-05 14:56:00,
2013-02-05 08:57:00,16.5,13.0,29.74,North,32767,-999.0,-999.0,86,0.00,,,0.00,Wunderground v.1.15,2013-02-05 14:57:00,
2013-02-05 08:58:00,16.5,12.8,29.74,North,32767,-999.0,-999.0,85,0.00,,,0.00,Wunderground v.1.15,2013-02-05 14:58:00,
2013-02-05 09:02:00,16.7,13.0,29.74,North,32767,-999.0,-999.0,85,0.00,,,0.00,Wunderground v.1.15,2013-02-05 15:02:00,
2013-02-05 09:03:00,16.7,13.0,29.74,North,32767,-999.0,-999.0,85,0.00,,,0.00,Wunderground v.1.15,2013-02-05 15:03:00,
2013-02-05 09:06:00,16.9,13.2,29.74,North,32767,-999.0,-999.0,85,0.00,,,0.00,Wunderground v.1.15,2013-02-05 15:06:00,
2013-02-05 09:07:00,17.0,13.3,29.74,North,32767,-999.0,-999.0,85,0.00,,,0.00,Wunderground v.1.15,2013-02-05 15:07:00,
2013-02-05 09:08:00,17.0,13.3,29.73,North,32767,-999.0,-999.0,85,0.00,,,0.00,Wunderground v.1.15,2013-02-05 15:08:00,
2013-02-05 09:10:00,17.3,13.8,29.73,North,32767,-999.0,-999.0,86,0.00,,,0.00,Wunderground v.1.15,2013-02-05 15:10:00,
2013-02-05 09:12:00,17.3,13.6,29.73,North,32767,-999.0,-999.0,85,0.00,,,0.00,Wunderground v.1.15,2013-02-05 15:12:00,
2013-02-05 09:13:00,17.3,13.6,29.73,North,32767,-999.0,-999.0,85,0.00,,,0.00,Wunderground v.1.15,2013-02-05 15:13:00,
2013-02-05 09:17:00,17.5,13.8,29.73,North,32767,-999.0,-999.0,85,0.00,,,0.00,Wunderground v.1.15,2013-02-05 15:17:00,
2013-02-05 09:18:00,17.5,13.8,29.73,North,32767,-999.0,-999.0,85,0.00,,,0.00,Wunderground v.1.15,2013-02-05 15:18:00,
2013-02-05 09:19:00,17.5,13.8,29.73,North,32767,-999.0,-999.0,85,0.00,,,0.00,Wunderground v.1.15,2013-02-05 15:19:00,
2013-02-05 09:23:00,17.5,13.5,29.73,North,32767,-999.0,-999.0,84,0.00,,,0.00,Wunderground v.1.15,2013-02-05 15:23:00,
2013-02-05 09:24:00,17.5,13.5,29.73,North,32767,-999.0,-999.0,84,0.00,,,0.00,Wunderground v.1.15,2013-02-05 15:24:00,
2013-02-05 09:25:00,17.5,13.5,29.73,North,32767,-999.0,-999.0,84,0.00,,,0.00,Wunderground v.1.15,2013-02-05 15:25:00,
2013-02-05 09:29:00,17.8,14.1,29.73,North,32767,-999.0,-999.0,85,0.00,,,0.00,Wunderground v.1.15,2013-02-05 15:29:00,
2013-02-05 09:33:00,17.8,13.8,29.73,North,32767,-999.0,-999.0,84,0.00,,,0.00,Wunderground v.1.15,2013-02-05 15:33:00,
2013-02-05 09:37:00,18.1,14.4,29.73,North,32767,-999.0,-999.0,85,0.00,,,0.00,Wunderground v.1.15,2013-02-05 15:37:00,
2013-02-05 09:38:00,18.1,14.4,29.73,North,32767,-999.0,-999.0,85,0.00,,,0.00,Wunderground v.1.15,2013-02-05 15:38:00,
2013-02-05 09:39:00,18.3,14.5,29.73,North,32767,-999.0,-999.0,85,0.00,,,0.00,Wunderground v.1.15,2013-02-05 15:39:00,
2013-02-05 09:42:00,18.6,14.8,29.73,North,32767,-999.0,-999.0,85,0.00,,,0.00,Wunderground v.1.15,2013-02-05 15:42:00,
2013-02-05 09:43:00,18.8,15.0,29.73,North,32767,-999.0,-999.0,85,0.00,,,0.00,Wunderground v.1.15,2013-02-05 15:43:00,
2013-02-05 09:46:00,19.2,15.4,29.73,North,32767,-999.0,-999.0,85,0.00,,,0.00,Wunderground v.1.15,2013-02-05 15:46:00,
2013-02-05 09:47:00,19.2,15.4,29.73,North,32767,-999.0,-999.0,85,0.00,,,0.00,Wunderground v.1.15,2013-02-05 15:47:00,
2013-02-05 09:51:00,19.7,15.9,29.73,North,32767,-999.0,-999.0,85,0.00,,,0.00,Wunderground v.1.15,2013-02-05 15:51:00,
2013-02-05 09:52:00,19.9,16.1,29.73,North,32767,-999.0,-999.0,85,0.00,,,0.00,Wunderground v.1.15,2013-02-05 15:52:00,
2013-02-05 09:53:00,19.9,16.1,29.73,North,32767,-999.0,-999.0,85,0.00,,,0.00,Wunderground v.1.15,2013-02-05 15:53:00,
2013-02-05 09:57:00,20.2,16.1,29.73,North,32767,-999.0,-999.0,84,0.00,,,0.00,Wunderground v.1.15,2013-02-05 15:57:00,
2013-02-05 09:58:00,20.2,16.1,29.73,North,32767,-999.0,-999.0,84,0.00,,,0.00,Wunderground v.1.15,2013-02-05 15:58:00,
2013-02-05 10:02:00,20.3,16.2,29.73,North,32767,-999.0,-999.0,84,0.00,,,0.00,Wunderground v.1.15,2013-02-05 16:02:00,
2013-02-05 10:03:00,20.3,16.2,29.73,North,32767,-999.0,-999.0,84,0.00,,,0.00,Wunderground v.1.15,2013-02-05 16:03:00,
2013-02-05 10:04:00,20.5,16.4,29.73,North,32767,-999.0,-999.0,84,0.00,,,0.00,Wunderground v.1.15,2013-02-05 16:04:00,
2013-02-05 10:07:00,20.6,16.5,29.73,North,32767,-999.0,-999.0,84,0.00,,,0.00,Wunderground v.1.15,2013-02-05 16:07:00,
2013-02-05 10:09:00,20.6,16.3,29.73,North,32767,-999.0,-999.0,83,0.00,,,0.00,Wunderground v.1.15,2013-02-05 16:09:00,
2013-02-05 10:10:00,20.6,16.3,29.73,North,32767,-999.0,-999.0,83,0.00,,,0.00,Wunderground v.1.15,2013-02-05 16:10:00,
2013-02-05 10:12:00,20.8,16.5,29.73,North,32767,-999.0,-999.0,83,0.00,,,0.00,Wunderground v.1.15,2013-02-05 16:12:00,
2013-02-05 10:17:00,20.8,16.5,29.73,North,32767,-999.0,-999.0,83,0.00,,,0.00,Wunderground v.1.15,2013-02-05 16:17:00,
2013-02-05 10:18:00,20.8,16.5,29.73,North,32767,-999.0,-999.0,83,0.00,,,0.00,Wunderground v.1.15,2013-02-05 16:18:00,
2013-02-05 10:22:00,20.8,16.5,29.73,North,32767,-999.0,-999.0,83,0.00,,,0.00,Wunderground v.1.15,2013-02-05 16:22:00,
2013-02-05 10:23:00,20.8,16.5,29.73,North,32767,-999.0,-999.0,83,0.00,,,0.00,Wunderground v.1.15,2013-02-05 16:23:00,
2013-02-05 10:24:00,20.8,16.5,29.73,North,32767,-999.0,-999.0,83,0.00,,,0.00,Wunderground v.1.15,2013-02-05 16:24:00,
2013-02-05 10:28:00,20.8,16.5,29.73,North,32767,-999.0,-999.0,83,0.00,,,0.00,Wunderground v.1.15,2013-02-05 16:28:00,
2013-02-05 10:32:00,21.0,16.6,29.73,North,32767,-999.0,-999.0,83,0.00,,,0.00,Wunderground v.1.15,2013-02-05 16:32:00,
2013-02-05 10:33:00,21.1,16.7,29.73,North,32767,-999.0,-999.0,83,0.00,,,0.00,Wunderground v.1.15,2013-02-05 16:33:00,
2013-02-05 10:34:00,21.1,16.7,29.73,North,32767,-999.0,-999.0,83,0.00,,,0.00,Wunderground v.1.15,2013-02-05 16:34:00,
2013-02-05 10:37:00,21.3,16.7,29.73,North,32767,-999.0,-999.0,82,0.00,,,0.00,Wunderground v.1.15,2013-02-05 16:37:00,
2013-02-05 10:38:00,21.3,16.7,29.73,North,32767,-999.0,-999.0,82,0.00,,,0.00,Wunderground v.1.15,2013-02-05 16:38:00,
2013-02-05 10:41:00,21.3,16.7,29.73,North,32767,-999.0,-999.0,82,0.00,,,0.00,Wunderground v.1.15,2013-02-05 16:41:00,
2013-02-05 10:42:00,21.3,16.7,29.73,North,32767,-999.0,-999.0,82,0.00,,,0.00,Wunderground v.1.15,2013-02-05 16:42:00,
2013-02-05 10:43:00,21.3,16.7,29.73,North,32767,-999.0,-999.0,82,0.00,,,0.00,Wunderground v.1.15,2013-02-05 16:43:00,
2013-02-05 10:46:00,21.1,16.7,29.73,North,32767,-999.0,-999.0,83,0.00,,,0.00,Wunderground v.1.15,2013-02-05 16:46:00,
2013-02-05 10:47:00,21.1,16.7,29.73,North,32767,-999.0,-999.0,83,0.00,,,0.00,Wunderground v.1.15,2013-02-05 16:47:00,
2013-02-05 10:48:00,21.1,17.0,29.73,North,32767,-999.0,-999.0,84,0.00,,,0.00,Wunderground v.1.15,2013-02-05 16:48:00,
2013-02-05 10:50:00,21.1,17.0,29.73,North,32767,-999.0,-999.0,84,0.00,,,0.00,Wunderground v.1.15,2013-02-05 16:50:00,
2013-02-05 10:52:00,21.1,17.3,29.73,North,32767,-999.0,-999.0,85,0.00,,,0.00,Wunderground v.1.15,2013-02-05 16:52:00,
2013-02-05 10:53:00,21.1,17.3,29.73,North,32767,-999.0,-999.0,85,0.00,,,0.00,Wunderground v.1.15,2013-02-05 16:53:00,
2013-02-05 10:54:00,21.1,17.3,29.72,North,32767,-999.0,-999.0,85,0.00,,,0.00,Wunderground v.1.15,2013-02-05 16:54:00,
2013-02-05 10:57:00,21.1,17.3,29.72,North,32767,-999.0,-999.0,85,0.00,,,0.00,Wunderground v.1.15,2013-02-05 16:57:00,
2013-02-05 10:58:00,21.1,17.6,29.72,North,32767,-999.0,-999.0,86,0.00,,,0.00,Wunderground v.1.15,2013-02-05 16:58:00,
2013-02-05 11:02:00,21.1,17.6,29.72,North,32767,-999.0,-999.0,86,0.00,,,0.00,Wunderground v.1.15,2013-02-05 17:02:00,
2013-02-05 11:03:00,21.1,17.6,29.72,North,32767,-999.0,-999.0,86,0.00,,,0.00,Wunderground v.1.15,2013-02-05 17:03:00,
2013-02-05 11:06:00,21.1,17.8,29.72,North,32767,-999.0,-999.0,87,0.00,,,0.00,Wunderground v.1.15,2013-02-05 17:06:00,
2013-02-05 11:07:00,21.3,18.0,29.72,North,32767,-999.0,-999.0,87,0.00,,,0.00,Wunderground v.1.15,2013-02-05 17:07:00,
2013-02-05 11:08:00,21.3,18.0,29.72,North,32767,-999.0,-999.0,87,0.00,,,0.00,Wunderground v.1.15,2013-02-05 17:08:00,
2013-02-05 11:12:00,21.3,18.3,29.72,North,32767,-999.0,-999.0,88,0.00,,,0.00,Wunderground v.1.15,2013-02-05 17:12:00,
2013-02-05 11:13:00,21.3,18.3,29.72,North,32767,-999.0,-999.0,88,0.00,,,0.00,Wunderground v.1.15,2013-02-05 17:13:00,
2013-02-05 11:16:00,21.3,18.3,29.72,North,32767,-999.0,-999.0,88,0.00,,,0.00,Wunderground v.1.15,2013-02-05 17:16:00,
2013-02-05 11:17:00,21.3,18.3,29.72,North,32767,-999.0,-999.0,88,0.00,,,0.00,Wunderground v.1.15,2013-02-05 17:17:00,
2013-02-05 11:18:00,21.3,18.3,29.72,North,32767,-999.0,-999.0,88,0.00,,,0.00,Wunderground v.1.15,2013-02-05 17:18:00,
2013-02-05 11:22:00,21.3,18.6,29.72,North,32767,-999.0,-999.0,89,0.00,,,0.00,Wunderground v.1.15,2013-02-05 17:22:00,
2013-02-05 11:23:00,21.3,18.6,29.72,North,32767,-999.0,-999.0,89,0.00,,,0.00,Wunderground v.1.15,2013-02-05 17:23:00,
2013-02-05 11:24:00,21.3,18.6,29.73,North,32767,-999.0,-999.0,89,0.00,,,0.00,Wunderground v.1.15,2013-02-05 17:24:00,
2013-02-05 11:28:00,21.1,18.4,29.73,North,32767,-999.0,-999.0,89,0.00,,,0.00,Wunderground v.1.15,2013-02-05 17:28:00,
2013-02-05 11:29:00,21.1,18.4,29.73,North,32767,-999.0,-999.0,89,0.00,,,0.00,Wunderground v.1.15,2013-02-05 17:29:00,
2013-02-05 11:31:00,21.1,18.4,29.73,North,32767,-999.0,-999.0,89,0.00,,,0.00,Wunderground v.1.15,2013-02-05 17:31:00,
2013-02-05 11:33:00,21.1,18.6,29.73,North,32767,-999.0,-999.0,90,0.00,,,0.00,Wunderground v.1.15,2013-02-05 17:33:00,
2013-02-05 11:37:00,21.1,18.6,29.73,North,32767,-999.0,-999.0,90,0.00,,,0.00,Wunderground v.1.15,2013-02-05 17:37:00,
2013-02-05 11:38:00,21.1,18.6,29.73,North,32767,-999.0,-999.0,90,0.00,,,0.00,Wunderground v.1.15,2013-02-05 17:38:00,
2013-02-05 11:42:00,21.3,19.1,29.73,North,32767,-999.0,-999.0,91,0.00,,,0.00,Wunderground v.1.15,2013-02-05 17:42:00,
2013-02-05 11:44:00,21.3,19.1,29.73,North,32767,-999.0,-999.0,91,0.00,,,0.00,Wunderground v.1.15,2013-02-05 17:44:00,
2013-02-05 11:47:00,21.4,19.2,29.73,North,32767,-999.0,-999.0,91,0.00,,,0.00,Wunderground v.1.15,2013-02-05 17:47:00,
2013-02-05 11:48:00,21.4,19.2,29.73,North,32767,-999.0,-999.0,91,0.00,,,0.00,Wunderground v.1.15,2013-02-05 17:48:00,
2013-02-05 11:51:00,21.8,19.6,29.73,North,32767,-999.0,-999.0,91,0.00,,,0.00,Wunderground v.1.15,2013-02-05 17:51:00,
2013-02-05 11:53:00,21.8,19.8,29.73,North,32767,-999.0,-999.0,92,0.00,,,0.00,Wunderground v.1.15,2013-02-05 17:53:00,
2013-02-05 11:54:00,21.9,19.9,29.73,North,32767,-999.0,-999.0,92,0.00,,,0.00,Wunderground v.1.15,2013-02-05 17:54:00,
2013-02-05 11:58:00,22.1,20.1,29.73,North,32767,-999.0,-999.0,92,0.00,,,0.00,Wunderground v.1.15,2013-02-05 17:58:00,
2013-02-05 11:59:00,22.1,20.1,29.73,North,32767,-999.0,-999.0,92,0.00,,,0.00,Wunderground v.1.15,2013-02-05 17:59:00,
2013-02-05 12:01:00,22.1,19.9,29.73,North,32767,-999.0,-999.0,91,0.00,,,0.00,Wunderground v.1.15,2013-02-05 18:01:00,
2013-02-05 12:03:00,22.1,19.9,29.73,North,32767,-999.0,-999.0,91,0.00,,,0.00,Wunderground v.1.15,2013-02-05 18:03:00,
2013-02-05 12:04:00,22.2,20.0,29.73,North,32767,-999.0,-999.0,91,0.00,,,0.00,Wunderground v.1.15,2013-02-05 18:04:00,
2013-02-05 12:06:00,22.2,20.0,29.73,North,32767,-999.0,-999.0,91,0.00,,,0.00,Wunderground v.1.15,2013-02-05 18:06:00,
2013-02-05 12:08:00,22.2,20.0,29.73,North,32767,-999.0,-999.0,91,0.00,,,0.00,Wunderground v.1.15,2013-02-05 18:08:00,
2013-02-05 12:09:00,22.2,20.0,29.72,North,32767,-999.0,-999.0,91,0.00,,,0.00,Wunderground v.1.15,2013-02-05 18:09:00,
2013-02-05 12:12:00,22.2,20.0,29.72,North,32767,-999.0,-999.0,91,0.00,,,0.00,Wunderground v.1.15,2013-02-05 18:12:00,
2013-02-05 12:13:00,22.2,20.0,29.72,North,32767,-999.0,-999.0,91,0.00,,,0.00,Wunderground v.1.15,2013-02-05 18:13:00,
2013-02-05 12:17:00,22.2,19.7,29.72,North,32767,-999.0,-999.0,90,0.00,,,0.00,Wunderground v.1.15,2013-02-05 18:17:00,
2013-02-05 12:18:00,22.4,20.2,29.72,North,32767,-999.0,-999.0,91,0.00,,,0.00,Wunderground v.1.15,2013-02-05 18:18:00,
2013-02-05 12:22:00,22.4,19.9,29.72,North,32767,-999.0,-999.0,90,0.00,,,0.00,Wunderground v.1.15,2013-02-05 18:22:00,
2013-02-05 12:23:00,22.4,19.9,29.72,North,32767,-999.0,-999.0,90,0.00,,,0.00,Wunderground v.1.15,2013-02-05 18:23:00,
2013-02-05 12:26:00,22.5,20.0,29.72,North,32767,-999.0,-999.0,90,0.00,,,0.00,Wunderground v.1.15,2013-02-05 18:26:00,
2013-02-05 12:28:00,22.7,20.2,29.72,North,32767,-999.0,-999.0,90,0.00,,,0.00,Wunderground v.1.15,2013-02-05 18:28:00,
2013-02-05 12:29:00,22.7,20.2,29.72,North,32767,-999.0,-999.0,90,0.00,,,0.00,Wunderground v.1.15,2013-02-05 18:29:00,
2013-02-05 12:32:00,22.7,20.2,29.72,North,32767,-999.0,-999.0,90,0.00,,,0.00,Wunderground v.1.15,2013-02-05 18:32:00,
2013-02-05 12:34:00,22.7,20.2,29.72,North,32767,-999.0,-999.0,90,0.00,,,0.00,Wunderground v.1.15,2013-02-05 18:34:00,
2013-02-05 12:37:00,22.7,20.2,29.72,North,32767,-999.0,-999.0,90,0.00,,,0.00,Wunderground v.1.15,2013-02-05 18:37:00,
2013-02-05 12:39:00,22.9,20.4,29.72,North,32767,-999.0,-999.0,90,0.00,,,0.00,Wunderground v.1.15,2013-02-05 18:39:00,
2013-02-05 12:42:00,22.9,20.4,29.72,North,32767,-999.0,-999.0,90,0.00,,,0.00,Wunderground v.1.15,2013-02-05 18:42:00,
2013-02-05 12:44:00,22.9,20.4,29.72,North,32767,-999.0,-999.0,90,0.00,,,0.00,Wunderground v.1.15,2013-02-05 18:44:00,
2013-02-05 12:45:00,22.9,20.1,29.72,North,32767,-999.0,-999.0,89,0.00,,,0.00,Wunderground v.1.15,2013-02-05 18:45:00,
2013-02-05 12:47:00,23.0,20.5,29.72,North,32767,-999.0,-999.0,90,0.00,,,0.00,Wunderground v.1.15,2013-02-05 18:47:00,
2013-02-05 12:48:00,23.2,20.4,29.72,North,32767,-999.0,-999.0,89,0.00,,,0.00,Wunderground v.1.15,2013-02-05 18:48:00,
2013-02-05 12:52:00,23.3,20.5,29.72,North,32767,-999.0,-999.0,89,0.00,,,0.00,Wunderground v.1.15,2013-02-05 18:52:00,
2013-02-05 12:54:00,23.2,20.4,29.72,North,32767,-999.0,-999.0,89,0.00,,,0.00,Wunderground v.1.15,2013-02-05 18:54:00,
2013-02-05 12:58:00,23.2,20.4,29.72,North,32767,-999.0,-999.0,89,0.00,,,0.00,Wunderground v.1.15,2013-02-05 18:58:00,
2013-02-05 12:59:00,23.3,20.5,29.72,North,32767,-999.0,-999.0,89,0.00,,,0.00,Wunderground v.1.15,2013-02-05 18:59:00,
2013-02-05 13:01:00,23.5,20.7,29.72,North,32767,-999.0,-999.0,89,0.00,,,0.00,Wunderground v.1.15,2013-02-05 19:01:00,
2013-02-05 13:03:00,23.6,20.6,29.72,North,32767,-999.0,-999.0,88,0.00,,,0.00,Wunderground v.1.15,2013-02-05 19:03:00,
2013-02-05 13:04:00,23.6,20.6,29.72,North,32767,-999.0,-999.0,88,0.00,,,0.00,Wunderground v.1.15,2013-02-05 19:04:00,
2013-02-05 13:06:00,23.5,20.2,29.72,North,32767,-999.0,-999.0,87,0.00,,,0.00,Wunderground v.1.15,2013-02-05 19:06:00,
2013-02-05 13:08:00,23.5,20.2,29.72,North,32767,-999.0,-999.0,87,0.00,,,0.00,Wunderground v.1.15,2013-02-05 19:08:00,
2013-02-05 13:11:00,23.6,20.0,29.72,North,32767,-999.0,-999.0,86,0.00,,,0.00,Wunderground v.1.15,2013-02-05 19:11:00,
2013-02-05 13:12:00,23.6,20.3,29.72,North,32767,-999.0,-999.0,87,0.00,,,0.00,Wunderground v.1.15,2013-02-05 19:12:00,
2013-02-05 13:13:00,23.8,20.2,29.72,North,32767,-999.0,-999.0,86,0.00,,,0.01,Wunderground v.1.15,2013-02-05 19:13:00,
2013-02-05 13:17:00,23.6,20.0,29.72,North,32767,-999.0,-999.0,86,0.00,,,0.01,Wunderground v.1.15,2013-02-05 19:17:00,
2013-02-05 13:18:00,23.6,20.0,29.72,North,32767,-999.0,-999.0,86,0.00,,,0.01,Wunderground v.1.15,2013-02-05 19:18:00,
2013-02-05 13:19:00,23.6,20.0,29.72,North,32767,-999.0,0.0,86,0.00,,,0.01,Wunderground v.1.15,2013-02-05 19:19:00,
2013-02-05 13:21:00,23.6,20.0,29.72,North,32767,-999.0,0.0,86,0.00,,,0.01,Wunderground v.1.15,2013-02-05 19:21:00,
2013-02-05 13:23:00,23.8,20.2,29.72,North,32767,-999.0,-999.0,86,0.00,,,0.01,Wunderground v.1.15,2013-02-05 19:23:00,
2013-02-05 13:24:00,23.8,20.2,29.72,North,32767,-999.0,-999.0,86,0.00,,,0.01,Wunderground v.1.15,2013-02-05 19:24:00,
2013-02-05 13:27:00,23.9,20.3,29.72,North,32767,-999.0,-999.0,86,0.00,,,0.01,Wunderground v.1.15,2013-02-05 19:27:00,
2013-02-05 13:28:00,23.9,20.3,29.72,North,32767,-999.0,-999.0,86,0.00,,,0.01,Wunderground v.1.15,2013-02-05 19:28:00,
2013-02-05 13:32:00,23.9,20.0,29.72,North,32767,-999.0,-999.0,85,0.00,,,0.01,Wunderground v.1.15,2013-02-05 19:32:00,
2013-02-05 13:33:00,23.9,20.0,29.72,North,32767,-999.0,-999.0,85,0.00,,,0.01,Wunderground v.1.15,2013-02-05 19:33:00,
2013-02-05 13:34:00,23.9,20.0,29.72,North,32767,-999.0,-999.0,85,0.00,,,0.01,Wunderground v.1.15,2013-02-05 19:34:00,
2013-02-05 13:35:00,23.9,20.0,29.72,North,32767,-999.0,-999.0,85,0.00,,,0.01,Wunderground v.1.15,2013-02-05 19:35:00,
2013-02-05 13:37:00,24.1,20.2,29.72,North,32767,-999.0,-999.0,85,0.00,,,0.01,Wunderground v.1.15,2013-02-05 19:37:00,
2013-02-05 13:41:00,24.1,20.2,29.73,North,32767,-999.0,-999.0,85,0.00,,,0.01,Wunderground v.1.15,2013-02-05 19:41:00,
2013-02-05 13:42:00,24.1,20.0,29.73,North,32767,-999.0,-999.0,84,0.00,,,0.01,Wunderground v.1.15,2013-02-05 19:42:00,
2013-02-05 13:43:00,24.1,20.0,29.73,North,32767,-999.0,-999.0,84,0.00,,,0.01,Wunderground v.1.15,2013-02-05 19:43:00,
2013-02-05 13:46:00,24.1,19.7,29.73,North,32767,-999.0,-999.0,83,0.00,,,0.01,Wunderground v.1.15,2013-02-05 19:46:00,
2013-02-05 13:48:00,24.1,19.7,29.73,North,32767,-999.0,-999.0,83,0.00,,,0.01,Wunderground v.1.15,2013-02-05 19:48:00,
2013-02-05 13:49:00,24.1,19.7,29.73,North,32767,-999.0,-999.0,83,0.00,,,0.01,Wunderground v.1.15,2013-02-05 19:49:00,
2013-02-05 13:52:00,24.2,20.1,29.73,North,32767,-999.0,-999.0,84,0.00,,,0.01,Wunderground v.1.15,2013-02-05 19:52:00,
2013-02-05 13:57:00,24.4,20.0,29.73,North,32767,-999.0,-999.0,83,0.00,,,0.01,Wunderground v.1.15,2013-02-05 19:57:00,
2013-02-05 13:58:00,24.4,20.0,29.73,North,32767,-999.0,-999.0,83,0.00,,,0.01,Wunderground v.1.15,2013-02-05 19:58:00,
2013-02-05 14:02:00,24.4,20.0,29.73,North,32767,-999.0,-999.0,83,0.00,,,0.01,Wunderground v.1.15,2013-02-05 20:02:00,
2013-02-05 14:03:00,24.4,20.0,29.73,North,32767,-999.0,-999.0,83,0.00,,,0.01,Wunderground v.1.15,2013-02-05 20:03:00,
2013-02-05 14:04:00,24.4,20.0,29.73,North,32767,-999.0,-999.0,83,0.00,,,0.01,Wunderground v.1.15,2013-02-05 20:04:00,
2013-02-05 14:07:00,24.5,20.1,29.73,North,32767,-999.0,-999.0,83,0.00,,,0.01,Wunderground v.1.15,2013-02-05 20:07:00,
2013-02-05 14:08:00,24.5,20.1,29.73,North,32767,-999.0,-999.0,83,0.00,,,0.01,Wunderground v.1.15,2013-02-05 20:08:00,
2013-02-05 14:13:00,24.5,20.1,29.74,North,32767,-999.0,-999.0,83,0.00,,,0.01,Wunderground v.1.15,2013-02-05 20:13:00,
2013-02-05 14:14:00,24.5,20.1,29.74,North,32767,-999.0,-999.0,83,0.00,,,0.01,Wunderground v.1.15,2013-02-05 20:14:00,
2013-02-05 14:18:00,24.7,20.3,29.74,North,32767,-999.0,-999.0,83,0.00,,,0.01,Wunderground v.1.15,2013-02-05 20:18:00,
2013-02-05 14:19:00,24.7,20.3,29.74,North,32767,-999.0,-999.0,83,0.00,,,0.01,Wunderground v.1.15,2013-02-05 20:19:00,
2013-02-05 14:22:00,24.7,20.0,29.74,North,32767,-999.0,-999.0,82,0.00,,,0.01,Wunderground v.1.15,2013-02-05 20:22:00,
2013-02-05 14:24:00,24.7,20.3,29.75,North,32767,-999.0,-999.0,83,0.00,,,0.01,Wunderground v.1.15,2013-02-05 20:24:00,
2013-02-05 14:27:00,24.7,20.0,29.75,North,32767,-999.0,-999.0,82,0.00,,,0.01,Wunderground v.1.15,2013-02-05 20:27:00,
2013-02-05 14:28:00,24.5,19.8,29.75,North,32767,-999.0,-999.0,82,0.00,,,0.01,Wunderground v.1.15,2013-02-05 20:28:00,
2013-02-05 14:29:00,24.5,19.8,29.75,North,32767,-999.0,-999.0,82,0.00,,,0.01,Wunderground v.1.15,2013-02-05 20:29:00,
2013-02-05 14:32:00,24.5,19.8,29.75,North,32767,-999.0,-999.0,82,0.00,,,0.01,Wunderground v.1.15,2013-02-05 20:32:00,
2013-02-05 14:33:00,24.4,19.7,29.75,North,32767,-999.0,-999.0,82,0.00,,,0.01,Wunderground v.1.15,2013-02-05 20:33:00,
2013-02-05 14:37:00,24.4,19.7,29.75,North,32767,-999.0,-999.0,82,0.00,,,0.01,Wunderground v.1.15,2013-02-05 20:37:00,
2013-02-05 14:38:00,24.4,19.7,29.75,North,32767,-999.0,-999.0,82,0.00,,,0.01,Wunderground v.1.15,2013-02-05 20:38:00,
2013-02-05 14:39:00,24.4,19.7,29.76,North,32767,-999.0,-999.0,82,0.00,,,0.01,Wunderground v.1.15,2013-02-05 20:39:00,
2013-02-05 14:42:00,24.4,19.7,29.76,North,32767,-999.0,-999.0,82,0.00,,,0.01,Wunderground v.1.15,2013-02-05 20:42:00,
2013-02-05 14:43:00,24.4,19.7,29.76,North,32767,-999.0,-999.0,82,0.00,,,0.01,Wunderground v.1.15,2013-02-05 20:43:00,
2013-02-05 14:44:00,24.4,19.7,29.76,North,32767,-999.0,-999.0,82,0.00,,,0.01,Wunderground v.1.15,2013-02-05 20:44:00,
2013-02-05 14:47:00,24.4,19.7,29.76,North,32767,-999.0,-999.0,82,0.00,,,0.01,Wunderground v.1.15,2013-02-05 20:47:00,
2013-02-05 14:50:00,24.4,19.7,29.76,North,32767,-999.0,-999.0,82,0.00,,,0.01,Wunderground v.1.15,2013-02-05 20:50:00,
2013-02-05 14:52:00,24.4,19.7,29.76,North,32767,-999.0,-999.0,82,0.00,,,0.01,Wunderground v.1.15,2013-02-05 20:52:00,
2013-02-05 14:53:00,24.4,19.7,29.76,North,32767,-999.0,-999.0,82,0.00,,,0.01,Wunderground v.1.15,2013-02-05 20:53:00,
2013-02-05 14:57:00,24.4,19.7,29.76,North,32767,-999.0,-999.0,82,0.00,,,0.01,Wunderground v.1.15,2013-02-05 20:57:00,
2013-02-05 14:58:00,24.5,19.8,29.76,North,32767,-999.0,-999.0,82,0.00,,,0.01,Wunderground v.1.15,2013-02-05 20:58:00,
2013-02-05 15:02:00,24.5,19.8,29.76,North,32767,-999.0,-999.0,82,0.00,,,0.01,Wunderground v.1.15,2013-02-05 21:02:00,
2013-02-05 15:04:00,24.7,20.0,29.76,North,32767,-999.0,-999.0,82,0.00,,,0.01,Wunderground v.1.15,2013-02-05 21:04:00,
2013-02-05 15:07:00,24.7,20.0,29.76,North,32767,-999.0,-999.0,82,0.00,,,0.01,Wunderground v.1.15,2013-02-05 21:07:00,
2013-02-05 15:09:00,24.7,20.0,29.76,North,32767,-999.0,-999.0,82,0.00,,,0.01,Wunderground v.1.15,2013-02-05 21:09:00,
2013-02-05 15:11:00,24.7,20.0,29.76,North,32767,-999.0,-999.0,82,0.00,,,0.01,Wunderground v.1.15,2013-02-05 21:11:00,
2013-02-05 15:13:00,24.7,20.0,29.76,North,32767,-999.0,-999.0,82,0.00,,,0.01,Wunderground v.1.15,2013-02-05 21:13:00,
2013-02-05 15:16:00,24.7,20.0,29.76,North,32767,-999.0,-999.0,82,0.00,,,0.01,Wunderground v.1.15,2013-02-05 21:16:00,
2013-02-05 15:18:00,24.7,20.0,29.76,North,32767,-999.0,-999.0,82,0.00,,,0.01,Wunderground v.1.15,2013-02-05 21:18:00,
2013-02-05 15:21:00,24.7,20.0,29.76,North,32767,-999.0,-999.0,82,0.00,,,0.01,Wunderground v.1.15,2013-02-05 21:21:00,
2013-02-05 15:22:00,24.7,20.0,29.76,North,32767,-999.0,-999.0,82,0.00,,,0.01,Wunderground v.1.15,2013-02-05 21:22:00,
2013-02-05 15:23:00,24.7,20.0,29.78,North,32767,-999.0,-999.0,82,0.00,,,0.01,Wunderground v.1.15,2013-02-05 21:23:00,
2013-02-05 15:27:00,24.7,20.0,29.78,North,32767,-999.0,-999.0,82,0.00,,,0.01,Wunderground v.1.15,2013-02-05 21:27:00,
2013-02-05 15:28:00,24.7,20.0,29.78,North,32767,-999.0,-999.0,82,0.00,,,0.01,Wunderground v.1.15,2013-02-05 21:28:00,
2013-02-05 15:32:00,24.8,20.1,29.78,North,32767,-999.0,-999.0,82,0.00,,,0.01,Wunderground v.1.15,2013-02-05 21:32:00,
2013-02-05 15:33:00,24.8,20.1,29.78,North,32767,-999.0,-999.0,82,0.00,,,0.01,Wunderground v.1.15,2013-02-05 21:33:00,
2013-02-05 15:37:00,24.8,20.1,29.78,North,32767,-999.0,-999.0,82,0.00,,,0.01,Wunderground v.1.15,2013-02-05 21:37:00,
2013-02-05 15:39:00,24.8,20.1,29.79,North,32767,-999.0,-999.0,82,0.00,,,0.01,Wunderground v.1.15,2013-02-05 21:39:00,
2013-02-05 15:42:00,24.8,20.1,29.79,North,32767,-999.0,-999.0,82,0.00,,,0.01,Wunderground v.1.15,2013-02-05 21:42:00,
2013-02-05 15:43:00,24.8,20.1,29.79,North,32767,-999.0,-999.0,82,0.00,,,0.01,Wunderground v.1.15,2013-02-05 21:43:00,
2013-02-05 15:46:00,25.0,20.3,29.79,North,32767,-999.0,-999.0,82,0.00,,,0.01,Wunderground v.1.15,2013-02-05 21:46:00,
2013-02-05 15:48:00,25.0,20.3,29.79,North,32767,-999.0,-999.0,82,0.00,,,0.01,Wunderground v.1.15,2013-02-05 21:48:00,
2013-02-05 15:49:00,25.0,20.3,29.79,North,32767,-999.0,-999.0,82,0.00,,,0.01,Wunderground v.1.15,2013-02-05 21:49:00,
2013-02-05 15:51:00,25.0,20.3,29.79,North,32767,-999.0,-999.0,82,0.00,,,0.01,Wunderground v.1.15,2013-02-05 21:51:00,
2013-02-05 15:53:00,25.0,20.3,29.79,North,32767,-999.0,-999.0,82,0.00,,,0.01,Wunderground v.1.15,2013-02-05 21:53:00,
2013-02-05 15:54:00,25.0,20.3,29.79,North,32767,-999.0,-999.0,82,0.00,,,0.01,Wunderground v.1.15,2013-02-05 21:54:00,
2013-02-05 15:55:00,25.0,20.3,29.79,North,32767,-999.0,-999.0,82,0.00,,,0.01,Wunderground v.1.15,2013-02-05 21:55:00,
2013-02-05 15:57:00,25.0,20.3,29.79,North,32767,-999.0,-999.0,82,0.00,,,0.01,Wunderground v.1.15,2013-02-05 21:57:00,
2013-02-05 15:59:00,25.0,20.3,29.79,North,32767,-999.0,-999.0,82,0.00,,,0.01,Wunderground v.1.15,2013-02-05 21:59:00,
2013-02-05 16:02:00,24.8,20.1,29.79,North,32767,-999.0,-999.0,82,0.00,,,0.01,Wunderground v.1.15,2013-02-05 22:02:00,
2013-02-05 16:03:00,24.8,20.1,29.79,North,32767,-999.0,-999.0,82,0.00,,,0.01,Wunderground v.1.15,2013-02-05 22:03:00,
2013-02-05 16:04:00,25.0,20.3,29.79,North,32767,-999.0,-999.0,82,0.00,,,0.01,Wunderground v.1.15,2013-02-05 22:04:00,
2013-02-05 16:07:00,24.8,20.1,29.79,North,32767,-999.0,-999.0,82,0.00,,,0.01,Wunderground v.1.15,2013-02-05 22:07:00,
2013-02-05 16:09:00,25.0,20.3,29.80,North,32767,-999.0,-999.0,82,0.00,,,0.01,Wunderground v.1.15,2013-02-05 22:09:00,
2013-02-05 16:11:00,25.0,20.3,29.80,North,32767,-999.0,-999.0,82,0.00,,,0.01,Wunderground v.1.15,2013-02-05 22:11:00,
2013-02-05 16:12:00,25.0,20.3,29.80,North,32767,-999.0,-999.0,82,0.00,,,0.01,Wunderground v.1.15,2013-02-05 22:12:00,
2013-02-05 16:13:00,25.0,20.3,29.80,North,32767,-999.0,-999.0,82,0.00,,,0.01,Wunderground v.1.15,2013-02-05 22:13:00,
2013-02-05 16:16:00,25.0,20.3,29.80,North,32767,-999.0,-999.0,82,0.00,,,0.01,Wunderground v.1.15,2013-02-05 22:16:00,
2013-02-05 16:17:00,25.0,20.3,29.80,North,32767,-999.0,-999.0,82,0.00,,,0.01,Wunderground v.1.15,2013-02-05 22:17:00,
2013-02-05 16:18:00,25.0,20.3,29.80,North,32767,-999.0,-999.0,82,0.00,,,0.01,Wunderground v.1.15,2013-02-05 22:18:00,
2013-02-05 16:20:00,25.0,20.3,29.80,North,32767,-999.0,-999.0,82,0.00,,,0.01,Wunderground v.1.15,2013-02-05 22:20:00,
2013-02-05 16:22:00,25.0,20.3,29.80,North,32767,-999.0,-999.0,82,0.00,,,0.01,Wunderground v.1.15,2013-02-05 22:22:00,
2013-02-05 16:23:00,25.0,20.3,29.80,North,32767,-999.0,-999.0,82,0.00,,,0.01,Wunderground v.1.15,2013-02-05 22:23:00,
2013-02-05 16:27:00,25.0,20.3,29.80,North,32767,-999.0,-999.0,82,0.00,,,0.01,Wunderground v.1.15,2013-02-05 22:27:00,
2013-02-05 16:29:00,25.0,20.3,29.80,North,32767,-999.0,-999.0,82,0.00,,,0.01,Wunderground v.1.15,2013-02-05 22:29:00,
2013-02-05 16:33:00,25.0,20.6,29.80,North,32767,-999.0,-999.0,83,0.00,,,0.01,Wunderground v.1.15,2013-02-05 22:33:00,
2013-02-05 16:34:00,25.0,20.6,29.80,North,32767,-999.0,-999.0,83,0.00,,,0.01,Wunderground v.1.15,2013-02-05 22:34:00,
2013-02-05 16:35:00,25.0,20.6,29.80,North,32767,-999.0,-999.0,83,0.00,,,0.01,Wunderground v.1.15,2013-02-05 22:35:00,
2013-02-05 16:36:00,25.0,20.6,29.80,North,32767,-999.0,-999.0,83,0.00,,,0.01,Wunderground v.1.15,2013-02-05 22:36:00,
2013-02-05 16:38:00,25.0,20.6,29.80,North,32767,-999.0,-999.0,83,0.00,,,0.01,Wunderground v.1.15,2013-02-05 22:38:00,
2013-02-05 16:39:00,25.0,20.6,29.81,North,32767,-999.0,-999.0,83,0.00,,,0.01,Wunderground v.1.15,2013-02-05 22:39:00,
2013-02-05 16:42:00,25.1,20.4,29.81,North,32767,-999.0,-999.0,82,0.00,,,0.01,Wunderground v.1.15,2013-02-05 22:42:00,
2013-02-05 16:43:00,25.1,20.7,29.81,North,32767,-999.0,-999.0,83,0.00,,,0.01,Wunderground v.1.15,2013-02-05 22:43:00,
2013-02-05 16:47:00,25.1,20.7,29.81,North,32767,-999.0,-999.0,83,0.00,,,0.01,Wunderground v.1.15,2013-02-05 22:47:00,
2013-02-05 16:48:00,25.1,20.7,29.81,North,32767,-999.0,-999.0,83,0.00,,,0.01,Wunderground v.1.15,2013-02-05 22:48:00,
2013-02-05 16:49:00,25.1,20.7,29.81,North,32767,-999.0,-999.0,83,0.00,,,0.01,Wunderground v.1.15,2013-02-05 22:49:00,
2013-02-05 16:53:00,25.1,20.7,29.81,North,32767,-999.0,-999.0,83,0.00,,,0.01,Wunderground v.1.15,2013-02-05 22:53:00,
2013-02-05 16:57:00,25.1,20.7,29.82,North,32767,-999.0,-999.0,83,0.00,,,0.01,Wunderground v.1.15,2013-02-05 22:57:00,
2013-02-05 16:58:00,25.1,20.7,29.82,North,32767,-999.0,-999.0,83,0.00,,,0.01,Wunderground v.1.15,2013-02-05 22:58:00,
2013-02-05 17:02:00,25.1,20.7,29.82,North,32767,-999.0,-999.0,83,0.00,,,0.01,Wunderground v.1.15,2013-02-05 23:02:00,
2013-02-05 17:03:00,25.1,20.7,29.82,North,32767,-999.0,-999.0,83,0.00,,,0.01,Wunderground v.1.15,2013-02-05 23:03:00,
2013-02-05 17:04:00,25.1,20.7,29.82,North,32767,-999.0,-999.0,83,0.00,,,0.01,Wunderground v.1.15,2013-02-05 23:04:00,
2013-02-05 17:08:00,25.1,20.9,29.82,North,32767,-999.0,-999.0,84,0.00,,,0.01,Wunderground v.1.15,2013-02-05 23:08:00,
2013-02-05 17:09:00,25.1,20.9,29.83,North,32767,-999.0,-999.0,84,0.00,,,0.01,Wunderground v.1.15,2013-02-05 23:09:00,
2013-02-05 17:12:00,25.1,20.9,29.83,North,32767,-999.0,-999.0,84,0.00,,,0.01,Wunderground v.1.15,2013-02-05 23:12:00,
2013-02-05 17:16:00,25.3,20.9,29.83,North,32767,-999.0,-999.0,83,0.00,,,0.01,Wunderground v.1.15,2013-02-05 23:16:00,
2013-02-05 17:17:00,25.3,20.9,29.83,North,32767,-999.0,-999.0,83,0.00,,,0.01,Wunderground v.1.15,2013-02-05 23:17:00,
2013-02-05 17:22:00,25.4,21.0,29.83,North,32767,-999.0,-999.0,83,0.00,,,0.01,Wunderground v.1.15,2013-02-05 23:22:00,
2013-02-05 17:23:00,25.4,21.0,29.83,North,32767,-999.0,-999.0,83,0.00,,,0.01,Wunderground v.1.15,2013-02-05 23:23:00,
2013-02-05 17:27:00,25.4,21.0,29.83,North,32767,-999.0,-999.0,83,0.00,,,0.01,Wunderground v.1.15,2013-02-05 23:27:00,
2013-02-05 17:28:00,25.4,21.0,29.83,North,32767,-999.0,-999.0,83,0.00,,,0.01,Wunderground v.1.15,2013-02-05 23:28:00,
2013-02-05 17:29:00,25.4,21.0,29.83,North,32767,-999.0,-999.0,83,0.00,,,0.01,Wunderground v.1.15,2013-02-05 23:29:00,
2013-02-05 17:31:00,25.6,21.2,29.83,North,32767,-999.0,-999.0,83,0.00,,,0.01,Wunderground v.1.15,2013-02-05 23:31:00,
2013-02-05 17:33:00,25.6,20.9,29.83,North,32767,-999.0,-999.0,82,0.00,,,0.01,Wunderground v.1.15,2013-02-05 23:33:00,
2013-02-05 17:34:00,25.6,20.9,29.83,North,32767,-999.0,-999.0,82,0.00,,,0.01,Wunderground v.1.15,2013-02-05 23:34:00,
2013-02-05 17:36:00,25.6,20.9,29.83,North,32767,-999.0,-999.0,82,0.00,,,0.01,Wunderground v.1.15,2013-02-05 23:36:00,
2013-02-05 17:37:00,25.6,20.9,29.83,North,32767,-999.0,-999.0,82,0.00,,,0.01,Wunderground v.1.15,2013-02-05 23:37:00,
2013-02-05 17:39:00,25.7,21.0,29.85,North,32767,-999.0,-999.0,82,0.00,,,0.01,Wunderground v.1.15,2013-02-05 23:39:00,
2013-02-05 17:42:00,25.7,21.0,29.85,North,32767,-999.0,-999.0,82,0.00,,,0.01,Wunderground v.1.15,2013-02-05 23:42:00,
2013-02-05 17:43:00,25.7,21.0,29.85,North,32767,-999.0,-999.0,82,0.00,,,0.01,Wunderground v.1.15,2013-02-05 23:43:00,
2013-02-05 17:44:00,25.7,21.0,29.85,North,32767,-999.0,-999.0,82,0.00,,,0.01,Wunderground v.1.15,2013-02-05 23:44:00,
2013-02-05 17:47:00,25.7,21.0,29.85,North,32767,-999.0,-999.0,82,0.00,,,0.01,Wunderground v.1.15,2013-02-05 23:47:00,
2013-02-05 17:49:00,25.7,21.0,29.85,North,32767,-999.0,-999.0,82,0.00,,,0.01,Wunderground v.1.15,2013-02-05 23:49:00,
2013-02-05 17:52:00,25.7,21.0,29.85,North,32767,-999.0,-999.0,82,0.00,,,0.01,Wunderground v.1.15,2013-02-05 23:52:00,
2013-02-05 17:53:00,25.7,21.0,29.85,North,32767,-999.0,-999.0,82,0.00,,,0.01,Wunderground v.1.15,2013-02-05 23:53:00,
2013-02-05 17:54:00,25.7,21.0,29.85,North,32767,-999.0,-999.0,82,0.00,,,0.01,Wunderground v.1.15,2013-02-05 23:54:00,
2013-02-05 17:57:00,25.7,21.0,29.85,North,32767,-999.0,-999.0,82,0.00,,,0.01,Wunderground v.1.15,2013-02-05 23:57:00,
2013-02-05 17:58:00,25.7,21.0,29.85,North,32767,-999.0,-999.0,82,0.00,,,0.01,Wunderground v.1.15,2013-02-05 23:58:00,
2013-02-05 17:59:00,25.7,21.0,29.85,North,32767,-999.0,-999.0,82,0.00,,,0.01,Wunderground v.1.15,2013-02-05 23:59:00,
2013-02-05 18:01:00,25.7,21.0,29.85,North,32767,-999.0,-999.0,82,0.00,,,0.01,Wunderground v.1.15,2013-02-06 00:01:00,
2013-02-05 18:02:00,25.7,21.0,29.85,North,32767,-999.0,-999.0,82,0.00,,,0.01,Wunderground v.1.15,2013-02-06 00:02:00,
2013-02-05 18:04:00,25.7,21.0,29.85,North,32767,-999.0,-999.0,82,0.00,,,0.01,Wunderground v.1.15,2013-02-06 00:04:00,
2013-02-05 18:08:00,25.8,21.1,29.85,North,32767,-999.0,-999.0,82,0.00,,,0.01,Wunderground v.1.15,2013-02-06 00:08:00,
2013-02-05 18:09:00,25.8,21.1,29.87,North,32767,-999.0,-999.0,82,0.00,,,0.01,Wunderground v.1.15,2013-02-06 00:09:00,
2013-02-05 18:12:00,25.8,21.1,29.87,North,32767,-999.0,-999.0,82,0.00,,,0.01,Wunderground v.1.15,2013-02-06 00:12:00,
2013-02-05 18:13:00,25.8,21.1,29.87,North,32767,-999.0,-999.0,82,0.00,,,0.01,Wunderground v.1.15,2013-02-06 00:13:00,
2013-02-05 18:14:00,25.8,21.1,29.87,North,32767,-999.0,-999.0,82,0.00,,,0.01,Wunderground v.1.15,2013-02-06 00:14:00,
2013-02-05 18:17:00,25.8,21.1,29.87,North,32767,-999.0,-999.0,82,0.00,,,0.01,Wunderground v.1.15,2013-02-06 00:17:00,
2013-02-05 18:18:00,25.8,21.1,29.87,North,32767,-999.0,-999.0,82,0.00,,,0.01,Wunderground v.1.15,2013-02-06 00:18:00,
2013-02-05 18:19:00,25.8,21.1,29.87,North,32767,-999.0,-999.0,82,0.00,,,0.01,Wunderground v.1.15,2013-02-06 00:19:00,
2013-02-05 18:22:00,25.8,21.1,29.87,North,32767,-999.0,-999.0,82,0.00,,,0.01,Wunderground v.1.15,2013-02-06 00:22:00,
2013-02-05 18:23:00,25.8,21.1,29.87,North,32767,-999.0,-999.0,82,0.00,,,0.01,Wunderground v.1.15,2013-02-06 00:23:00,
2013-02-05 18:26:00,26.0,21.3,29.87,North,32767,-999.0,-999.0,82,0.00,,,0.01,Wunderground v.1.15,2013-02-06 00:26:00,
2013-02-05 18:27:00,26.0,21.0,29.87,North,32767,-999.0,-999.0,81,0.00,,,0.01,Wunderground v.1.15,2013-02-06 00:27:00,
2013-02-05 18:28:00,26.0,21.0,29.87,North,32767,-999.0,-999.0,81,0.00,,,0.01,Wunderground v.1.15,2013-02-06 00:28:00,
2013-02-05 18:33:00,26.0,21.0,29.87,North,32767,-999.0,-999.0,81,0.00,,,0.01,Wunderground v.1.15,2013-02-06 00:33:00,
2013-02-05 18:34:00,26.0,21.0,29.87,North,32767,-999.0,-999.0,81,0.00,,,0.01,Wunderground v.1.15,2013-02-06 00:34:00,
2013-02-05 18:36:00,26.0,21.0,29.87,North,32767,-999.0,-999.0,81,0.00,,,0.01,Wunderground v.1.15,2013-02-06 00:36:00,
2013-02-05 18:38:00,26.0,21.0,29.87,North,32767,-999.0,-999.0,81,0.00,,,0.01,Wunderground v.1.15,2013-02-06 00:38:00,
2013-02-05 18:40:00,26.0,21.0,29.88,North,32767,-999.0,-999.0,81,0.00,,,0.01,Wunderground v.1.15,2013-02-06 00:40:00,
2013-02-05 18:41:00,26.1,21.1,29.88,North,32767,-999.0,-999.0,81,0.00,,,0.01,Wunderground v.1.15,2013-02-06 00:41:00,
2013-02-05 18:44:00,26.1,21.1,29.88,North,32767,-999.0,-999.0,81,0.00,,,0.01,Wunderground v.1.15,2013-02-06 00:44:00,
2013-02-05 18:47:00,26.1,20.8,29.88,North,32767,-999.0,-999.0,80,0.00,,,0.01,Wunderground v.1.15,2013-02-06 00:47:00,
2013-02-05 18:48:00,26.1,20.8,29.88,North,32767,-999.0,-999.0,80,0.00,,,0.01,Wunderground v.1.15,2013-02-06 00:48:00,
2013-02-05 18:52:00,26.1,21.1,29.88,North,32767,-999.0,-999.0,81,0.00,,,0.01,Wunderground v.1.15,2013-02-06 00:52:00,
2013-02-05 18:53:00,26.1,21.1,29.89,North,32767,-999.0,-999.0,81,0.00,,,0.01,Wunderground v.1.15,2013-02-06 00:53:00,
2013-02-05 18:56:00,26.1,20.8,29.89,North,32767,-999.0,-999.0,80,0.00,,,0.01,Wunderground v.1.15,2013-02-06 00:56:00,
2013-02-05 18:58:00,26.1,20.8,29.89,North,32767,-999.0,-999.0,80,0.00,,,0.01,Wunderground v.1.15,2013-02-06 00:58:00,
2013-02-05 18:59:00,26.1,20.8,29.89,North,32767,-999.0,-999.0,80,0.00,,,0.01,Wunderground v.1.15,2013-02-06 00:59:00,
2013-02-05 19:00:00,26.1,20.8,29.89,North,32767,-999.0,-999.0,80,0.00,,,0.01,Wunderground v.1.15,2013-02-06 01:00:00,
2013-02-05 19:01:00,26.1,20.8,29.89,North,32767,-999.0,-999.0,80,0.00,,,0.01,Wunderground v.1.15,2013-02-06 01:01:00,
2013-02-05 19:03:00,26.1,20.5,29.89,North,32767,-999.0,-999.0,79,0.00,,,0.01,Wunderground v.1.15,2013-02-06 01:03:00,
2013-02-05 19:07:00,26.1,20.5,29.89,North,32767,-999.0,-999.0,79,0.00,,,0.01,Wunderground v.1.15,2013-02-06 01:07:00,
2013-02-05 19:09:00,26.1,20.5,29.90,North,32767,-999.0,-999.0,79,0.00,,,0.01,Wunderground v.1.15,2013-02-06 01:09:00,
2013-02-05 19:12:00,26.0,20.4,29.90,North,32767,-999.0,-999.0,79,0.00,,,0.01,Wunderground v.1.15,2013-02-06 01:12:00,
2013-02-05 19:14:00,26.0,20.4,29.90,North,32767,-999.0,-999.0,79,0.00,,,0.01,Wunderground v.1.15,2013-02-06 01:14:00,
2013-02-05 19:15:00,26.0,20.4,29.90,North,32767,-999.0,-999.0,79,0.00,,,0.01,Wunderground v.1.15,2013-02-06 01:15:00,
2013-02-05 19:17:00,26.0,20.4,29.90,North,32767,-999.0,-999.0,79,0.00,,,0.01,Wunderground v.1.15,2013-02-06 01:17:00,
2013-02-05 19:22:00,25.8,20.2,29.90,North,32767,-999.0,-999.0,79,0.00,,,0.01,Wunderground v.1.15,2013-02-06 01:22:00,
2013-02-05 19:23:00,25.8,19.9,29.90,North,32767,-999.0,-999.0,78,0.00,,,0.01,Wunderground v.1.15,2013-02-06 01:23:00,
2013-02-05 19:24:00,25.8,19.9,29.90,North,32767,-999.0,-999.0,78,0.00,,,0.01,Wunderground v.1.15,2013-02-06 01:24:00,
2013-02-05 19:27:00,25.8,19.9,29.90,North,32767,-999.0,-999.0,78,0.00,,,0.01,Wunderground v.1.15,2013-02-06 01:27:00,
2013-02-05 19:28:00,25.8,19.9,29.90,North,32767,-999.0,-999.0,78,0.00,,,0.01,Wunderground v.1.15,2013-02-06 01:28:00,
2013-02-05 19:29:00,25.8,19.9,29.90,North,32767,-999.0,-999.0,78,0.00,,,0.01,Wunderground v.1.15,2013-02-06 01:29:00,
2013-02-05 19:32:00,25.8,19.9,29.90,North,32767,-999.0,-999.0,78,0.00,,,0.01,Wunderground v.1.15,2013-02-06 01:32:00,
2013-02-05 19:34:00,25.8,19.9,29.90,North,32767,-999.0,-999.0,78,0.00,,,0.01,Wunderground v.1.15,2013-02-06 01:34:00,
2013-02-05 19:36:00,25.7,19.8,29.90,North,32767,-999.0,-999.0,78,0.00,,,0.01,Wunderground v.1.15,2013-02-06 01:36:00,
2013-02-05 19:38:00,25.7,19.5,29.90,North,32767,-999.0,-999.0,77,0.00,,,0.01,Wunderground v.1.15,2013-02-06 01:38:00,
2013-02-05 19:42:00,25.6,19.4,29.91,North,32767,-999.0,-999.0,77,0.00,,,0.01,Wunderground v.1.15,2013-02-06 01:42:00,
2013-02-05 19:43:00,25.6,19.4,29.91,North,32767,-999.0,-999.0,77,0.00,,,0.01,Wunderground v.1.15,2013-02-06 01:43:00,
2013-02-05 19:44:00,25.4,18.9,29.91,North,32767,-999.0,-999.0,76,0.00,,,0.01,Wunderground v.1.15,2013-02-06 01:44:00,
2013-02-05 19:48:00,25.3,18.5,29.91,North,32767,-999.0,-999.0,75,0.00,,,0.01,Wunderground v.1.15,2013-02-06 01:48:00,
2013-02-05 19:49:00,25.3,18.5,29.91,North,32767,-999.0,-999.0,75,0.00,,,0.01,Wunderground v.1.15,2013-02-06 01:49:00,
2013-02-05 19:53:00,25.3,18.5,29.91,North,32767,-999.0,-999.0,75,0.00,,,0.01,Wunderground v.1.15,2013-02-06 01:53:00,
2013-02-05 19:54:00,25.3,18.5,29.92,North,32767,-999.0,-999.0,75,0.00,,,0.01,Wunderground v.1.15,2013-02-06 01:54:00,
2013-02-05 19:58:00,25.1,18.3,29.92,North,32767,-999.0,-999.0,75,0.00,,,0.01,Wunderground v.1.15,2013-02-06 01:58:00,
2013-02-05 19:59:00,25.1,18.3,29.92,North,32767,-999.0,-999.0,75,0.00,,,0.01,Wunderground v.1.15,2013-02-06 01:59:00,
2013-02-05 20:01:00,25.1,18.0,29.92,North,32767,-999.0,-999.0,74,0.00,,,0.01,Wunderground v.1.15,2013-02-06 02:01:00,
2013-02-05 20:03:00,25.1,18.0,29.92,North,32767,-999.0,-999.0,74,0.00,,,0.01,Wunderground v.1.15,2013-02-06 02:03:00,
2013-02-05 20:07:00,25.0,17.9,29.92,North,32767,-999.0,-999.0,74,0.00,,,0.01,Wunderground v.1.15,2013-02-06 02:07:00,
2013-02-05 20:08:00,25.0,17.9,29.93,North,32767,-999.0,-999.0,74,0.00,,,0.01,Wunderground v.1.15,2013-02-06 02:08:00,
2013-02-05 20:09:00,25.0,17.9,29.93,North,32767,-999.0,-999.0,74,0.00,,,0.01,Wunderground v.1.15,2013-02-06 02:09:00,
2013-02-05 20:12:00,25.0,17.9,29.93,North,32767,-999.0,-999.0,74,0.00,,,0.01,Wunderground v.1.15,2013-02-06 02:12:00,
2013-02-05 20:13:00,25.0,17.9,29.93,North,32767,-999.0,-999.0,74,0.00,,,0.01,Wunderground v.1.15,2013-02-06 02:13:00,
2013-02-05 20:14:00,25.0,17.9,29.93,North,32767,-999.0,-999.0,74,0.00,,,0.01,Wunderground v.1.15,2013-02-06 02:14:00,
2013-02-05 20:18:00,25.0,17.9,29.93,North,32767,-999.0,-999.0,74,0.00,,,0.01,Wunderground v.1.15,2013-02-06 02:18:00,
2013-02-05 20:20:00,25.0,17.9,29.93,North,32767,-999.0,-999.0,74,0.00,,,0.01,Wunderground v.1.15,2013-02-06 02:20:00,
2013-02-05 20:23:00,24.8,17.7,29.94,North,32767,-999.0,-999.0,74,0.00,,,0.01,Wunderground v.1.15,2013-02-06 02:23:00,
2013-02-05 20:24:00,24.8,17.7,29.94,North,32767,-999.0,-999.0,74,0.00,,,0.01,Wunderground v.1.15,2013-02-06 02:24:00,
2013-02-05 20:27:00,24.8,17.7,29.94,North,32767,-999.0,-999.0,74,0.00,,,0.01,Wunderground v.1.15,2013-02-06 02:27:00,
2013-02-05 20:29:00,24.8,18.0,29.94,North,32767,-999.0,-999.0,75,0.00,,,0.01,Wunderground v.1.15,2013-02-06 02:29:00,
2013-02-05 20:32:00,24.8,17.7,29.94,North,32767,-999.0,-999.0,74,0.00,,,0.01,Wunderground v.1.15,2013-02-06 02:32:00,
2013-02-05 20:33:00,24.8,17.7,29.94,North,32767,-999.0,-999.0,74,0.00,,,0.01,Wunderground v.1.15,2013-02-06 02:33:00,
2013-02-05 20:37:00,24.8,17.7,29.94,North,32767,-999.0,-999.0,74,0.00,,,0.01,Wunderground v.1.15,2013-02-06 02:37:00,
2013-02-05 20:38:00,24.8,17.7,29.94,North,32767,-999.0,-999.0,74,0.00,,,0.01,Wunderground v.1.15,2013-02-06 02:38:00,
2013-02-05 20:39:00,24.7,17.6,29.94,North,32767,-999.0,-999.0,74,0.00,,,0.01,Wunderground v.1.15,2013-02-06 02:39:00,
2013-02-05 20:43:00,24.5,17.1,29.94,North,32767,-999.0,-999.0,73,0.00,,,0.01,Wunderground v.1.15,2013-02-06 02:43:00,
2013-02-05 20:47:00,24.5,17.1,29.94,North,32767,-999.0,-999.0,73,0.00,,,0.01,Wunderground v.1.15,2013-02-06 02:47:00,
2013-02-05 20:48:00,24.5,17.4,29.94,North,32767,-999.0,-999.0,74,0.00,,,0.01,Wunderground v.1.15,2013-02-06 02:48:00,
2013-02-05 20:49:00,24.5,17.4,29.94,North,32767,-999.0,-999.0,74,0.00,,,0.01,Wunderground v.1.15,2013-02-06 02:49:00,
2013-02-05 20:54:00,24.4,17.0,29.95,North,32767,-999.0,-999.0,73,0.00,,,0.01,Wunderground v.1.15,2013-02-06 02:54:00,
2013-02-05 20:55:00,24.4,17.0,29.95,North,32767,-999.0,-999.0,73,0.00,,,0.01,Wunderground v.1.15,2013-02-06 02:55:00,
2013-02-05 20:59:00,24.2,16.8,29.95,North,32767,-999.0,-999.0,73,0.00,,,0.01,Wunderground v.1.15,2013-02-06 02:59:00,
2013-02-05 21:02:00,24.2,16.8,29.95,North,32767,-999.0,-999.0,73,0.00,,,0.01,Wunderground v.1.15,2013-02-06 03:02:00,
2013-02-05 21:03:00,24.1,16.4,29.95,North,32767,-999.0,-999.0,72,0.00,,,0.01,Wunderground v.1.15,2013-02-06 03:03:00,
2013-02-05 21:07:00,24.1,16.7,29.95,North,32767,-999.0,-999.0,73,0.00,,,0.01,Wunderground v.1.15,2013-02-06 03:07:00,
2013-02-05 21:08:00,24.1,16.7,29.96,North,32767,-999.0,-999.0,73,0.00,,,0.01,Wunderground v.1.15,2013-02-06 03:08:00,
2013-02-05 21:09:00,23.9,16.2,29.96,North,32767,-999.0,-999.0,72,0.00,,,0.01,Wunderground v.1.15,2013-02-06 03:09:00,
2013-02-05 21:12:00,23.9,16.2,29.96,North,32767,-999.0,-999.0,72,0.00,,,0.01,Wunderground v.1.15,2013-02-06 03:12:00,
2013-02-05 21:14:00,23.9,16.2,29.96,North,32767,-999.0,-999.0,72,0.00,,,0.01,Wunderground v.1.15,2013-02-06 03:14:00,
2013-02-05 21:16:00,23.8,16.1,29.96,North,32767,-999.0,-999.0,72,0.00,,,0.01,Wunderground v.1.15,2013-02-06 03:16:00,
2013-02-05 21:17:00,23.8,16.1,29.96,North,32767,-999.0,-999.0,72,0.00,,,0.01,Wunderground v.1.15,2013-02-06 03:17:00,
2013-02-05 21:18:00,23.8,16.1,29.96,North,32767,-999.0,-999.0,72,0.00,,,0.01,Wunderground v.1.15,2013-02-06 03:18:00,
2013-02-05 21:22:00,23.6,15.9,29.96,North,32767,-999.0,-999.0,72,0.00,,,0.01,Wunderground v.1.15,2013-02-06 03:22:00,
2013-02-05 21:27:00,23.6,15.9,29.96,North,32767,-999.0,-999.0,72,0.00,,,0.01,Wunderground v.1.15,2013-02-06 03:27:00,
2013-02-05 21:28:00,23.5,15.8,29.96,North,32767,-999.0,-999.0,72,0.00,,,0.01,Wunderground v.1.15,2013-02-06 03:28:00,
2013-02-05 21:33:00,23.3,15.6,29.96,North,32767,-999.0,-999.0,72,0.00,,,0.01,Wunderground v.1.15,2013-02-06 03:33:00,
2013-02-05 21:34:00,23.3,15.6,29.96,North,32767,-999.0,-999.0,72,0.00,,,0.01,Wunderground v.1.15,2013-02-06 03:34:00,
2013-02-05 21:39:00,23.2,15.5,29.97,North,32767,-999.0,-999.0,72,0.00,,,0.01,Wunderground v.1.15,2013-02-06 03:39:00,
2013-02-05 21:41:00,23.2,15.5,29.97,North,32767,-999.0,-999.0,72,0.00,,,0.01,Wunderground v.1.15,2013-02-06 03:41:00,
2013-02-05 21:42:00,23.2,15.5,29.97,North,32767,-999.0,-999.0,72,0.00,,,0.01,Wunderground v.1.15,2013-02-06 03:42:00,
2013-02-05 21:44:00,23.2,15.8,29.97,North,32767,-999.0,-999.0,73,0.00,,,0.01,Wunderground v.1.15,2013-02-06 03:44:00,
2013-02-05 21:47:00,23.0,15.3,29.97,North,32767,-999.0,-999.0,72,0.00,,,0.01,Wunderground v.1.15,2013-02-06 03:47:00,
2013-02-05 21:48:00,23.0,15.3,29.97,North,32767,-999.0,-999.0,72,0.00,,,0.01,Wunderground v.1.15,2013-02-06 03:48:00,
2013-02-05 21:52:00,23.0,15.3,29.97,North,32767,-999.0,-999.0,72,0.00,,,0.01,Wunderground v.1.15,2013-02-06 03:52:00,
2013-02-05 21:53:00,23.0,15.6,29.97,North,32767,-999.0,-999.0,73,0.00,,,0.01,Wunderground v.1.15,2013-02-06 03:53:00,
2013-02-05 21:54:00,23.0,15.6,29.97,North,32767,-999.0,-999.0,73,0.00,,,0.01,Wunderground v.1.15,2013-02-06 03:54:00,
2013-02-05 21:57:00,23.0,15.3,29.97,North,32767,-999.0,-999.0,72,0.00,,,0.01,Wunderground v.1.15,2013-02-06 03:57:00,
2013-02-05 21:58:00,23.0,15.3,29.97,North,32767,-999.0,-999.0,72,0.00,,,0.01,Wunderground v.1.15,2013-02-06 03:58:00,
2013-02-05 21:59:00,23.0,15.3,29.97,North,32767,-999.0,-999.0,72,0.00,,,0.01,Wunderground v.1.15,2013-02-06 03:59:00,
2013-02-05 22:02:00,22.9,15.2,29.97,North,32767,-999.0,-999.0,72,0.00,,,0.01,Wunderground v.1.15,2013-02-06 04:02:00,
2013-02-05 22:03:00,22.9,15.2,29.97,North,32767,-999.0,-999.0,72,0.00,,,0.01,Wunderground v.1.15,2013-02-06 04:03:00,
2013-02-05 22:07:00,22.9,15.2,29.97,North,32767,-999.0,-999.0,72,0.00,,,0.01,Wunderground v.1.15,2013-02-06 04:07:00,
2013-02-05 22:08:00,22.9,15.2,29.97,North,32767,-999.0,-999.0,72,0.00,,,0.01,Wunderground v.1.15,2013-02-06 04:08:00,
2013-02-05 22:12:00,22.9,15.2,29.97,North,32767,-999.0,-999.0,72,0.00,,,0.01,Wunderground v.1.15,2013-02-06 04:12:00,
2013-02-05 22:13:00,22.7,15.0,29.97,North,32767,-999.0,-999.0,72,0.00,,,0.01,Wunderground v.1.15,2013-02-06 04:13:00,
2013-02-05 22:14:00,22.7,15.0,29.97,North,32767,-999.0,-999.0,72,0.00,,,0.01,Wunderground v.1.15,2013-02-06 04:14:00,
2013-02-05 22:18:00,22.7,15.0,29.97,North,32767,-999.0,-999.0,72,0.00,,,0.01,Wunderground v.1.15,2013-02-06 04:18:00,
2013-02-05 22:19:00,22.7,15.0,29.97,North,32767,-999.0,-999.0,72,0.00,,,0.01,Wunderground v.1.15,2013-02-06 04:19:00,
2013-02-05 22:22:00,22.7,15.0,29.97,North,32767,-999.0,-999.0,72,0.00,,,0.01,Wunderground v.1.15,2013-02-06 04:22:00,
2013-02-05 22:24:00,22.7,15.0,29.99,North,32767,-999.0,-999.0,72,0.00,,,0.01,Wunderground v.1.15,2013-02-06 04:24:00,
2013-02-05 22:27:00,22.7,15.0,29.99,North,32767,-999.0,-999.0,72,0.00,,,0.01,Wunderground v.1.15,2013-02-06 04:27:00,
2013-02-05 22:29:00,22.5,14.8,29.99,North,32767,-999.0,-999.0,72,0.00,,,0.01,Wunderground v.1.15,2013-02-06 04:29:00,
2013-02-05 22:31:00,22.5,14.8,29.99,North,32767,-999.0,-999.0,72,0.00,,,0.01,Wunderground v.1.15,2013-02-06 04:31:00,
2013-02-05 22:32:00,22.5,14.8,29.99,North,32767,-999.0,-999.0,72,0.00,,,0.01,Wunderground v.1.15,2013-02-06 04:32:00,
2013-02-05 22:36:00,22.5,14.8,29.99,North,32767,-999.0,-999.0,72,0.00,,,0.01,Wunderground v.1.15,2013-02-06 04:36:00,
2013-02-05 22:38:00,22.5,14.8,29.99,North,32767,-999.0,-999.0,72,0.00,,,0.01,Wunderground v.1.15,2013-02-06 04:38:00,
2013-02-05 22:42:00,22.4,14.7,29.99,North,32767,-999.0,-999.0,72,0.00,,,0.01,Wunderground v.1.15,2013-02-06 04:42:00,
2013-02-05 22:43:00,22.4,14.7,29.99,North,32767,-999.0,-999.0,72,0.00,,,0.01,Wunderground v.1.15,2013-02-06 04:43:00,
2013-02-05 22:44:00,22.4,14.7,29.99,North,32767,-999.0,-999.0,72,0.00,,,0.01,Wunderground v.1.15,2013-02-06 04:44:00,
2013-02-05 22:47:00,22.4,14.7,29.99,North,32767,-999.0,-999.0,72,0.00,,,0.01,Wunderground v.1.15,2013-02-06 04:47:00,
2013-02-05 22:49:00,22.4,14.7,29.99,North,32767,-999.0,-999.0,72,0.00,,,0.01,Wunderground v.1.15,2013-02-06 04:49:00,
2013-02-05 22:52:00,22.2,14.9,29.99,North,32767,-999.0,-999.0,73,0.00,,,0.01,Wunderground v.1.15,2013-02-06 04:52:00,
2013-02-05 22:57:00,22.2,14.5,29.99,North,32767,-999.0,-999.0,72,0.00,,,0.01,Wunderground v.1.15,2013-02-06 04:57:00,
2013-02-05 22:58:00,22.2,14.5,29.99,North,32767,-999.0,-999.0,72,0.00,,,0.01,Wunderground v.1.15,2013-02-06 04:58:00,
2013-02-05 23:01:00,22.2,14.5,29.99,North,32767,-999.0,-999.0,72,0.00,,,0.01,Wunderground v.1.15,2013-02-06 05:01:00,
2013-02-05 23:02:00,22.2,14.5,29.99,North,32767,-999.0,-999.0,72,0.00,,,0.01,Wunderground v.1.15,2013-02-06 05:02:00,
2013-02-05 23:03:00,22.2,14.5,29.99,North,32767,-999.0,-999.0,72,0.00,,,0.01,Wunderground v.1.15,2013-02-06 05:03:00,
2013-02-05 23:07:00,22.1,14.4,29.99,North,32767,-999.0,-999.0,72,0.00,,,0.01,Wunderground v.1.15,2013-02-06 05:07:00,
2013-02-05 23:08:00,22.1,14.4,29.99,North,32767,-999.0,-999.0,72,0.00,,,0.01,Wunderground v.1.15,2013-02-06 05:08:00,
2013-02-05 23:10:00,22.1,14.4,30.00,North,32767,-999.0,-999.0,72,0.00,,,0.00,Wunderground v.1.15,2013-02-06 05:10:00,
2013-02-05 23:12:00,22.1,14.4,30.00,North,32767,-999.0,-999.0,72,0.00,,,0.00,Wunderground v.1.15,2013-02-06 05:12:00,
2013-02-05 23:13:00,22.1,14.4,30.00,North,32767,-999.0,-999.0,72,0.00,,,0.00,Wunderground v.1.15,2013-02-06 05:13:00,
2013-02-05 23:17:00,22.1,14.4,30.00,North,32767,-999.0,-999.0,72,0.00,,,0.00,Wunderground v.1.15,2013-02-06 05:17:00,
2013-02-05 23:19:00,21.9,14.3,30.00,North,32767,-999.0,-999.0,72,0.00,,,0.00,Wunderground v.1.15,2013-02-06 05:19:00,
2013-02-05 23:22:00,21.9,14.3,30.00,North,32767,-999.0,-999.0,72,0.00,,,0.00,Wunderground v.1.15,2013-02-06 05:22:00,
2013-02-05 23:24:00,21.9,14.3,30.01,North,32767,-999.0,-999.0,72,0.00,,,0.00,Wunderground v.1.15,2013-02-06 05:24:00,
2013-02-05 23:27:00,21.9,14.3,30.01,North,32767,-999.0,-999.0,72,0.00,,,0.00,Wunderground v.1.15,2013-02-06 05:27:00,
2013-02-05 23:28:00,21.9,14.3,30.01,North,32767,-999.0,-999.0,72,0.00,,,0.00,Wunderground v.1.15,2013-02-06 05:28:00,
2013-02-05 23:31:00,21.9,14.3,30.01,North,32767,-999.0,-999.0,72,0.00,,,0.00,Wunderground v.1.15,2013-02-06 05:31:00,
2013-02-05 23:32:00,21.9,14.3,30.01,North,32767,-999.0,-999.0,72,0.00,,,0.00,Wunderground v.1.15,2013-02-06 05:32:00,
2013-02-05 23:36:00,21.9,13.9,30.01,North,32767,-999.0,-999.0,71,0.00,,,0.00,Wunderground v.1.15,2013-02-06 05:36:00,
2013-02-05 23:37:00,21.9,14.3,30.01,North,32767,-999.0,-999.0,72,0.00,,,0.00,Wunderground v.1.15,2013-02-06 05:37:00,
2013-02-05 23:38:00,21.9,14.3,30.01,North,32767,-999.0,-999.0,72,0.00,,,0.00,Wunderground v.1.15,2013-02-06 05:38:00,
2013-02-05 23:42:00,21.8,14.2,30.01,North,32767,-999.0,-999.0,72,0.00,,,0.00,Wunderground v.1.15,2013-02-06 05:42:00,
2013-02-05 23:43:00,21.8,14.2,30.01,North,32767,-999.0,-999.0,72,0.00,,,0.00,Wunderground v.1.15,2013-02-06 05:43:00,
2013-02-05 23:47:00,21.8,14.2,30.01,North,32767,-999.0,-999.0,72,0.00,,,0.00,Wunderground v.1.15,2013-02-06 05:47:00,
2013-02-05 23:48:00,21.8,14.2,30.01,North,32767,-999.0,-999.0,72,0.00,,,0.00,Wunderground v.1.15,2013-02-06 05:48:00,
2013-02-05 23:49:00,21.6,14.0,30.01,North,32767,-999.0,-999.0,72,0.00,,,0.00,Wunderground v.1.15,2013-02-06 05:49:00,
2013-02-05 23:53:00,21.6,14.0,30.02,North,32767,-999.0,-999.0,72,0.00,,,0.00,Wunderground v.1.15,2013-02-06 05:53:00,
2013-02-05 23:54:00,21.6,14.0,30.02,North,32767,-999.0,-999.0,72,0.00,,,0.00,Wunderground v.1.15,2013-02-06 05:54:00,
2013-02-05 23:57:00,21.4,13.8,30.02,North,32767,-999.0,-999.0,72,0.00,,,0.00,Wunderground v.1.15,2013-02-06 05:57:00,
2013-02-05 23:58:00,21.4,13.8,30.02,North,32767,-999.0,-999.0,72,0.00,,,0.00,Wunderground v.1.15,2013-02-06 05:58:00,